Wetterdaten: Sonntag, 18.09.2022
Datum Zeit Temp. Aussen Temp. o. S. Temp +5cm Feuchte Auss Luftdruck Regen Sonnenschein Regendauer Solar Windben Empfang
18.09.2022 00:00 11,4 C 10,6 C 7,2 C 88 % 1016,2 hPa 0,0 l/m 0 min 0 min 0 W/m 12,9 km/h (3 Bft) 97,87 %
18.09.2022 00:02 11,4 C 10,6 C 7,2 C 88 % 1016,2 hPa 0,0 l/m 0 min 0 min 0 W/m 12,9 km/h (3 Bft) 94,29 %
18.09.2022 00:04 11,4 C 10,6 C 7,2 C 88 % 1016,2 hPa 0,0 l/m 0 min 0 min 0 W/m 9,7 km/h (2 Bft) 100,00 %
18.09.2022 00:07 11,3 C 10,6 C 7,2 C 88 % 1016,2 hPa 0,0 l/m 0 min 0 min 0 W/m 6,4 km/h (2 Bft) 100,00 %
18.09.2022 00:10 11,3 C 10,6 C 7,2 C 89 % 1016,2 hPa 0,0 l/m 0 min 0 min 0 W/m 9,7 km/h (2 Bft) 99,29 %
18.09.2022 00:12 11,3 C 10,6 C 7,2 C 89 % 1016,2 hPa 0,0 l/m 0 min 0 min 0 W/m 12,9 km/h (3 Bft) 95,74 %
18.09.2022 00:14 11,3 C 10,6 C 7,2 C 89 % 1016,2 hPa 0,0 l/m 0 min 0 min 0 W/m 12,9 km/h (3 Bft) 100,00 %
18.09.2022 00:16 11,3 C 10,6 C 7,2 C 89 % 1016,2 hPa 0,0 l/m 0 min 0 min 0 W/m 12,9 km/h (3 Bft) 95,74 %
18.09.2022 00:18 11,3 C 10,6 C 7,2 C 89 % 1016,1 hPa 0,0 l/m 0 min 0 min 0 W/m 12,9 km/h (3 Bft) 97,87 %
18.09.2022 00:20 11,3 C 10,6 C 7,2 C 89 % 1016,3 hPa 0,0 l/m 0 min 0 min 0 W/m 19,3 km/h (3 Bft) 95,65 %
18.09.2022 00:22 11,3 C 10,6 C 7,2 C 89 % 1016,2 hPa 0,0 l/m 0 min 0 min 0 W/m 12,9 km/h (3 Bft) 97,87 %
18.09.2022 00:24 11,3 C 10,6 C 7,2 C 89 % 1016,2 hPa 0,0 l/m 0 min 0 min 0 W/m 12,9 km/h (3 Bft) 100,00 %
18.09.2022 00:26 11,3 C 10,6 C 7,2 C 89 % 1016,2 hPa 0,0 l/m 0 min 0 min 0 W/m 12,9 km/h (3 Bft) 97,87 %
18.09.2022 00:28 11,3 C 10,6 C 7,2 C 89 % 1016,3 hPa 0,0 l/m 0 min 0 min 0 W/m 12,9 km/h (3 Bft) 100,00 %
18.09.2022 00:30 11,3 C 10,6 C 7,2 C 90 % 1016,2 hPa 0,0 l/m 0 min 0 min 0 W/m 6,4 km/h (2 Bft) 95,65 %
18.09.2022 00:32 11,3 C 10,6 C 7,2 C 90 % 1016,2 hPa 0,0 l/m 0 min 0 min 0 W/m 6,4 km/h (2 Bft) 97,87 %
18.09.2022 00:34 11,3 C 10,6 C 7,2 C 90 % 1016,2 hPa 0,0 l/m 0 min 0 min 0 W/m 6,4 km/h (2 Bft) 54,55 %
18.09.2022 00:36 11,3 C 10,6 C 7,2 C 90 % 1016,2 hPa 0,0 l/m 0 min 0 min 0 W/m 12,9 km/h (3 Bft) 97,87 %
18.09.2022 00:38 11,3 C 10,6 C 7,2 C 90 % 1016,3 hPa 0,0 l/m 0 min 0 min 0 W/m 12,9 km/h (3 Bft) 100,00 %
18.09.2022 00:40 11,3 C 10,6 C 7,2 C 90 % 1016,2 hPa 0,0 l/m 0 min 0 min 0 W/m 6,4 km/h (2 Bft) 95,74 %
18.09.2022 00:42 11,3 C 10,6 C 7,2 C 90 % 1016,2 hPa 0,0 l/m 0 min 0 min 0 W/m 6,4 km/h (2 Bft) 93,48 %
18.09.2022 00:44 11,3 C 10,6 C 7,2 C 90 % 1016,2 hPa 0,0 l/m 0 min 0 min 0 W/m 9,7 km/h (2 Bft) 93,62 %
18.09.2022 00:46 11,3 C 10,6 C 7,2 C 90 % 1016,2 hPa 0,0 l/m 0 min 0 min 0 W/m 9,7 km/h (2 Bft) 93,62 %
18.09.2022 00:48 11,3 C 10,6 C 7,2 C 90 % 1016,3 hPa 0,0 l/m 0 min 0 min 0 W/m 12,9 km/h (3 Bft) 95,74 %
18.09.2022 00:50 11,3 C 10,6 C 7,2 C 90 % 1016,3 hPa 0,0 l/m 0 min 0 min 0 W/m 12,9 km/h (3 Bft) 93,62 %
18.09.2022 00:52 11,3 C 10,6 C 7,2 C 90 % 1016,3 hPa 0,0 l/m 0 min 0 min 0 W/m 9,7 km/h (2 Bft) 93,62 %
18.09.2022 00:54 11,3 C 10,6 C 7,2 C 90 % 1016,2 hPa 0,0 l/m 0 min 0 min 0 W/m 12,9 km/h (3 Bft) 93,62 %
18.09.2022 00:56 11,3 C 10,6 C 7,2 C 90 % 1016,3 hPa 0,0 l/m 0 min 0 min 0 W/m 19,3 km/h (3 Bft) 93,48 %
18.09.2022 00:58 11,3 C 10,6 C 7,2 C 90 % 1016,2 hPa 0,0 l/m 0 min 0 min 0 W/m 12,9 km/h (3 Bft) 91,49 %
18.09.2022 01:00 11,3 C 10,6 C 7,2 C 91 % 1016,2 hPa 0,0 l/m 0 min 0 min 0 W/m 12,9 km/h (3 Bft) 93,62 %
18.09.2022 01:02 11,3 C 10,6 C 7,2 C 91 % 1016,1 hPa 0,0 l/m 0 min 0 min 0 W/m 12,9 km/h (3 Bft) 93,62 %
18.09.2022 01:04 11,3 C 10,6 C 7,2 C 91 % 1016,1 hPa 0,0 l/m 0 min 0 min 0 W/m 16,1 km/h (3 Bft) 93,62 %
18.09.2022 01:06 11,3 C 10,6 C 7,2 C 91 % 1016,1 hPa 0,0 l/m 0 min 0 min 0 W/m 9,7 km/h (2 Bft) 93,48 %
18.09.2022 01:08 11,3 C 10,6 C 7,2 C 91 % 1016,1 hPa 0,0 l/m 0 min 0 min 0 W/m 9,7 km/h (2 Bft) 95,74 %
18.09.2022 01:10 11,3 C 10,6 C 7,2 C 91 % 1016,1 hPa 0,0 l/m 0 min 0 min 0 W/m 6,4 km/h (2 Bft) 95,74 %
18.09.2022 01:12 11,3 C 10,6 C 7,2 C 91 % 1016,1 hPa 0,0 l/m 0 min 0 min 0 W/m 9,7 km/h (2 Bft) 95,74 %
18.09.2022 01:14 11,4 C 10,6 C 7,2 C 91 % 1016,1 hPa 0,0 l/m 0 min 0 min 0 W/m 6,4 km/h (2 Bft) 97,87 %
18.09.2022 01:16 11,4 C 10,6 C 7,2 C 91 % 1016,0 hPa 0,0 l/m 0 min 0 min 0 W/m 12,9 km/h (3 Bft) 100,00 %
18.09.2022 01:18 11,4 C 10,6 C 7,2 C 91 % 1016,0 hPa 0,0 l/m 0 min 0 min 0 W/m 6,4 km/h (2 Bft) 97,83 %
18.09.2022 01:20 11,4 C 10,6 C 7,2 C 91 % 1016,1 hPa 0,0 l/m 0 min 0 min 0 W/m 19,3 km/h (3 Bft) 95,74 %
18.09.2022 01:22 11,4 C 10,6 C 7,2 C 91 % 1016,1 hPa 0,0 l/m 0 min 0 min 0 W/m 19,3 km/h (3 Bft) 97,87 %
18.09.2022 01:24 11,4 C 10,6 C 7,8 C 91 % 1016,1 hPa 0,0 l/m 0 min 0 min 0 W/m 12,9 km/h (3 Bft) 97,87 %
18.09.2022 01:26 11,4 C 10,6 C 7,8 C 91 % 1016,1 hPa 0,0 l/m 0 min 0 min 0 W/m 12,9 km/h (3 Bft) 97,87 %
18.09.2022 01:28 11,4 C 10,6 C 7,8 C 91 % 1016,1 hPa 0,0 l/m 0 min 0 min 0 W/m 6,4 km/h (2 Bft) 97,87 %
18.09.2022 01:30 11,4 C 10,6 C 7,8 C 92 % 1016,1 hPa 0,0 l/m 0 min 2 min 0 W/m 16,1 km/h (3 Bft) 97,83 %
18.09.2022 01:32 11,4 C 10,6 C 7,8 C 92 % 1016,1 hPa 0,0 l/m 0 min 2 min 0 W/m 16,1 km/h (3 Bft) 97,87 %
18.09.2022 01:34 11,4 C 10,6 C 7,2 C 92 % 1016,1 hPa 0,0 l/m 0 min 2 min 0 W/m 12,9 km/h (3 Bft) 100,00 %
18.09.2022 01:36 11,4 C 10,6 C 7,2 C 92 % 1015,9 hPa 0,0 l/m 0 min 2 min 0 W/m 12,9 km/h (3 Bft) 100,00 %
18.09.2022 01:38 11,4 C 10,6 C 7,2 C 92 % 1015,9 hPa 0,0 l/m 0 min 2 min 0 W/m 12,9 km/h (3 Bft) 95,74 %
18.09.2022 01:40 11,5 C 10,6 C 7,2 C 92 % 1015,9 hPa 0,0 l/m 0 min 2 min 0 W/m 16,1 km/h (3 Bft) 100,00 %
18.09.2022 01:42 11,4 C 10,6 C 7,2 C 92 % 1015,9 hPa 0,0 l/m 0 min 2 min 0 W/m 9,7 km/h (2 Bft) 100,00 %
18.09.2022 01:44 11,4 C 10,6 C 7,2 C 92 % 1016,0 hPa 0,0 l/m 0 min 2 min 0 W/m 12,9 km/h (3 Bft) 97,87 %
18.09.2022 01:46 11,4 C 10,6 C 7,2 C 92 % 1016,0 hPa 0,0 l/m 0 min 0 min 0 W/m 12,9 km/h (3 Bft) 100,00 %
18.09.2022 01:48 11,4 C 10,6 C 7,2 C 92 % 1016,1 hPa 0,0 l/m 0 min 2 min 0 W/m 9,7 km/h (2 Bft) 97,87 %
18.09.2022 01:50 11,4 C 10,6 C 7,2 C 92 % 1016,0 hPa 0,0 l/m 0 min 0 min 0 W/m 19,3 km/h (3 Bft) 100,00 %
18.09.2022 01:52 11,4 C 10,6 C 7,2 C 92 % 1016,0 hPa 0,0 l/m 0 min 0 min 0 W/m 12,9 km/h (3 Bft) 100,00 %
18.09.2022 01:54 11,4 C 10,6 C 7,2 C 92 % 1016,0 hPa 0,0 l/m 0 min 0 min 0 W/m 6,4 km/h (2 Bft) 100,00 %
18.09.2022 01:56 11,4 C 10,6 C 7,2 C 92 % 1016,1 hPa 0,0 l/m 0 min 2 min 0 W/m 25,7 km/h (4 Bft) 100,00 %
18.09.2022 01:58 11,4 C 10,6 C 7,2 C 92 % 1016,1 hPa 0,0 l/m 0 min 2 min 0 W/m 19,3 km/h (3 Bft) 100,00 %
18.09.2022 02:00 11,4 C 10,6 C 7,2 C 93 % 1016,0 hPa 0,0 l/m 0 min 0 min 0 W/m 16,1 km/h (3 Bft) 100,00 %
18.09.2022 02:02 11,4 C 10,6 C 7,2 C 93 % 1016,0 hPa 0,0 l/m 0 min 0 min 0 W/m 16,1 km/h (3 Bft) 100,00 %
18.09.2022 02:04 11,4 C 10,6 C 7,2 C 93 % 1016,0 hPa 0,0 l/m 0 min 0 min 0 W/m 12,9 km/h (3 Bft) 97,87 %
18.09.2022 02:06 11,4 C 10,6 C 7,2 C 93 % 1016,0 hPa 0,0 l/m 0 min 0 min 0 W/m 19,3 km/h (3 Bft) 100,00 %
18.09.2022 02:08 11,4 C 10,6 C 7,2 C 93 % 1015,9 hPa 0,0 l/m 0 min 0 min 0 W/m 12,9 km/h (3 Bft) 100,00 %
18.09.2022 02:10 11,4 C 10,6 C 7,2 C 93 % 1015,9 hPa 0,0 l/m 0 min 2 min 0 W/m 16,1 km/h (3 Bft) 100,00 %
18.09.2022 02:12 11,4 C 10,6 C 7,2 C 93 % 1016,0 hPa 0,0 l/m 0 min 0 min 0 W/m 16,1 km/h (3 Bft) 100,00 %
18.09.2022 02:14 11,4 C 10,6 C 7,2 C 93 % 1015,9 hPa 0,0 l/m 0 min 0 min 0 W/m 12,9 km/h (3 Bft) 100,00 %
18.09.2022 02:16 11,4 C 10,6 C 7,2 C 93 % 1015,9 hPa 0,0 l/m 0 min 0 min 0 W/m 16,1 km/h (3 Bft) 100,00 %
18.09.2022 02:18 11,4 C 10,6 C 7,2 C 93 % 1015,9 hPa 0,0 l/m 0 min 0 min 0 W/m 12,9 km/h (3 Bft) 100,00 %
18.09.2022 02:20 11,4 C 10,6 C 7,2 C 93 % 1015,9 hPa 0,0 l/m 0 min 0 min 0 W/m 9,7 km/h (2 Bft) 100,00 %
18.09.2022 02:22 11,3 C 10,6 C 7,2 C 93 % 1015,9 hPa 0,0 l/m 0 min 0 min 0 W/m 12,9 km/h (3 Bft) 100,00 %
18.09.2022 02:24 11,3 C 10,6 C 7,2 C 93 % 1015,9 hPa 0,0 l/m 0 min 0 min 0 W/m 16,1 km/h (3 Bft) 97,87 %
18.09.2022 02:26 11,3 C 10,6 C 7,2 C 93 % 1015,9 hPa 0,0 l/m 0 min 0 min 0 W/m 12,9 km/h (3 Bft) 93,62 %
18.09.2022 02:28 11,3 C 10,6 C 7,2 C 93 % 1015,9 hPa 0,0 l/m 0 min 0 min 0 W/m 19,3 km/h (3 Bft) 97,87 %
18.09.2022 02:30 11,3 C 10,6 C 7,2 C 93 % 1015,9 hPa 0,0 l/m 0 min 0 min 0 W/m 16,1 km/h (3 Bft) 100,00 %
18.09.2022 02:32 11,3 C 10,6 C 7,2 C 93 % 1015,8 hPa 0,0 l/m 0 min 0 min 0 W/m 19,3 km/h (3 Bft) 100,00 %
18.09.2022 02:34 11,3 C 10,6 C 7,2 C 93 % 1015,9 hPa 0,0 l/m 0 min 0 min 0 W/m 12,9 km/h (3 Bft) 97,87 %
18.09.2022 02:36 11,3 C 10,6 C 7,2 C 93 % 1015,8 hPa 0,0 l/m 0 min 0 min 0 W/m 16,1 km/h (3 Bft) 95,74 %
18.09.2022 02:38 11,3 C 10,6 C 7,8 C 93 % 1015,8 hPa 0,0 l/m 0 min 0 min 0 W/m 9,7 km/h (2 Bft) 97,87 %
18.09.2022 02:40 11,3 C 10,6 C 7,2 C 93 % 1015,8 hPa 0,0 l/m 0 min 0 min 0 W/m 16,1 km/h (3 Bft) 91,49 %
18.09.2022 02:42 11,3 C 10,6 C 7,2 C 93 % 1015,8 hPa 0,0 l/m 0 min 0 min 0 W/m 19,3 km/h (3 Bft) 97,83 %
18.09.2022 02:44 11,3 C 10,6 C 7,8 C 93 % 1015,9 hPa 0,0 l/m 0 min 0 min 0 W/m 19,3 km/h (3 Bft) 97,87 %
18.09.2022 02:46 11,3 C 10,6 C 7,8 C 93 % 1015,8 hPa 0,0 l/m 0 min 2 min 0 W/m 6,4 km/h (2 Bft) 97,87 %
18.09.2022 02:48 11,3 C 10,6 C 7,8 C 93 % 1015,9 hPa 0,0 l/m 0 min 2 min 0 W/m 16,1 km/h (3 Bft) 95,74 %
18.09.2022 02:50 11,3 C 10,6 C 7,2 C 93 % 1015,9 hPa 0,0 l/m 0 min 0 min 0 W/m 9,7 km/h (2 Bft) 97,87 %
18.09.2022 02:52 11,3 C 10,6 C 7,2 C 93 % 1015,9 hPa 0,0 l/m 0 min 0 min 0 W/m 12,9 km/h (3 Bft) 95,74 %
18.09.2022 02:54 11,3 C 10,6 C 7,8 C 93 % 1015,9 hPa 0,0 l/m 0 min 0 min 0 W/m 12,9 km/h (3 Bft) 95,65 %
18.09.2022 02:56 11,3 C 10,6 C 7,8 C 93 % 1015,9 hPa 0,0 l/m 0 min 0 min 0 W/m 12,9 km/h (3 Bft) 97,87 %
18.09.2022 02:58 11,3 C 10,6 C 7,2 C 93 % 1015,9 hPa 0,0 l/m 0 min 0 min 0 W/m 19,3 km/h (3 Bft) 95,74 %
18.09.2022 03:00 11,3 C 10,6 C 7,8 C 93 % 1015,9 hPa 0,0 l/m 0 min 0 min 0 W/m 16,1 km/h (3 Bft) 95,74 %
18.09.2022 03:02 11,3 C 10,6 C 7,2 C 93 % 1016,0 hPa 0,0 l/m 0 min 0 min 0 W/m 9,7 km/h (2 Bft) 93,62 %
18.09.2022 03:04 11,3 C 10,6 C 7,2 C 93 % 1016,0 hPa 0,0 l/m 0 min 0 min 0 W/m 19,3 km/h (3 Bft) 97,87 %
18.09.2022 03:06 11,3 C 10,6 C 7,2 C 93 % 1016,1 hPa 0,0 l/m 0 min 0 min 0 W/m 12,9 km/h (3 Bft) 97,83 %
18.09.2022 03:08 11,3 C 10,6 C 7,2 C 93 % 1016,0 hPa 0,0 l/m 0 min 0 min 0 W/m 16,1 km/h (3 Bft) 97,87 %
18.09.2022 03:10 11,3 C 10,6 C 7,2 C 93 % 1016,0 hPa 0,0 l/m 0 min 0 min 0 W/m 6,4 km/h (2 Bft) 97,87 %
18.09.2022 03:12 11,3 C 10,6 C 7,2 C 93 % 1016,0 hPa 0,0 l/m 0 min 0 min 0 W/m 9,7 km/h (2 Bft) 95,74 %
18.09.2022 03:14 11,3 C 10,6 C 7,2 C 93 % 1016,0 hPa 0,0 l/m 0 min 0 min 0 W/m 12,9 km/h (3 Bft) 97,87 %
18.09.2022 03:16 11,3 C 10,6 C 7,2 C 93 % 1016,0 hPa 0,0 l/m 0 min 0 min 0 W/m 12,9 km/h (3 Bft) 97,87 %
18.09.2022 03:18 11,3 C 10,6 C 7,2 C 93 % 1016,1 hPa 0,0 l/m 0 min 0 min 0 W/m 12,9 km/h (3 Bft) 97,83 %
18.09.2022 03:20 11,3 C 10,6 C 7,2 C 93 % 1016,0 hPa 0,0 l/m 0 min 0 min 0 W/m 12,9 km/h (3 Bft) 97,87 %
18.09.2022 03:22 11,3 C 10,6 C 7,2 C 93 % 1016,0 hPa 0,0 l/m 0 min 0 min 0 W/m 12,9 km/h (3 Bft) 97,87 %
18.09.2022 03:24 11,3 C 10,6 C 7,2 C 93 % 1016,1 hPa 0,0 l/m 0 min 0 min 0 W/m 6,4 km/h (2 Bft) 97,87 %
18.09.2022 03:26 11,3 C 10,6 C 7,2 C 93 % 1016,0 hPa 0,0 l/m 0 min 0 min 0 W/m 9,7 km/h (2 Bft) 97,87 %
18.09.2022 03:28 11,3 C 10,6 C 7,2 C 93 % 1015,9 hPa 0,0 l/m 0 min 0 min 0 W/m 9,7 km/h (2 Bft) 95,74 %
18.09.2022 03:30 11,3 C 10,6 C 7,8 C 93 % 1015,9 hPa 0,0 l/m 0 min 0 min 0 W/m 12,9 km/h (3 Bft) 97,83 %
18.09.2022 03:32 11,3 C 10,6 C 7,2 C 93 % 1015,9 hPa 0,0 l/m 0 min 0 min 0 W/m 12,9 km/h (3 Bft) 97,87 %
18.09.2022 03:34 11,3 C 10,6 C 7,2 C 93 % 1015,9 hPa 0,0 l/m 0 min 0 min 0 W/m 12,9 km/h (3 Bft) 97,87 %
18.09.2022 03:36 11,3 C 10,6 C 7,2 C 93 % 1015,9 hPa 0,0 l/m 0 min 0 min 0 W/m 12,9 km/h (3 Bft) 98,31 %
18.09.2022 03:38 11,3 C 10,6 C 7,2 C 93 % 1016,0 hPa 0,0 l/m 0 min 0 min 0 W/m 6,4 km/h (2 Bft) 97,14 %
18.09.2022 03:40 11,3 C 10,6 C 7,8 C 93 % 1015,9 hPa 0,0 l/m 0 min 0 min 0 W/m 9,7 km/h (2 Bft) 100,00 %
18.09.2022 03:42 11,3 C 10,6 C 7,2 C 93 % 1015,9 hPa 0,0 l/m 0 min 0 min 0 W/m 12,9 km/h (3 Bft) 95,74 %
18.09.2022 03:44 11,3 C 10,6 C 7,2 C 93 % 1015,9 hPa 0,0 l/m 0 min 0 min 0 W/m 12,9 km/h (3 Bft) 95,74 %
18.09.2022 03:46 11,3 C 10,6 C 7,2 C 93 % 1015,9 hPa 0,0 l/m 0 min 0 min 0 W/m 9,7 km/h (2 Bft) 95,74 %
18.09.2022 03:48 11,3 C 10,6 C 7,2 C 93 % 1015,9 hPa 0,0 l/m 0 min 0 min 0 W/m 9,7 km/h (2 Bft) 93,62 %
18.09.2022 03:50 11,3 C 10,6 C 7,2 C 93 % 1015,9 hPa 0,0 l/m 0 min 0 min 0 W/m 12,9 km/h (3 Bft) 95,74 %
18.09.2022 03:52 11,3 C 10,6 C 7,2 C 93 % 1015,9 hPa 0,0 l/m 0 min 0 min 0 W/m 19,3 km/h (3 Bft) 97,83 %
18.09.2022 03:54 11,3 C 10,6 C 7,2 C 93 % 1016,0 hPa 0,0 l/m 0 min 0 min 0 W/m 6,4 km/h (2 Bft) 97,87 %
18.09.2022 03:56 11,3 C 10,6 C 7,2 C 93 % 1016,0 hPa 0,0 l/m 0 min 0 min 0 W/m 12,9 km/h (3 Bft) 95,74 %
18.09.2022 03:58 11,3 C 10,6 C 7,2 C 93 % 1016,1 hPa 0,0 l/m 0 min 2 min 0 W/m 6,4 km/h (2 Bft) 97,87 %
18.09.2022 04:00 11,3 C 10,6 C 7,2 C 93 % 1016,1 hPa 0,0 l/m 0 min 2 min 0 W/m 16,1 km/h (3 Bft) 95,74 %
18.09.2022 04:02 11,3 C 10,6 C 7,2 C 93 % 1016,0 hPa 0,0 l/m 0 min 2 min 0 W/m 6,4 km/h (2 Bft) 100,00 %
18.09.2022 04:04 11,3 C 10,6 C 7,2 C 93 % 1016,0 hPa 0,0 l/m 0 min 2 min 0 W/m 9,7 km/h (2 Bft) 100,00 %
18.09.2022 04:06 11,3 C 10,6 C 7,2 C 93 % 1016,0 hPa 0,0 l/m 0 min 2 min 0 W/m 9,7 km/h (2 Bft) 100,00 %
18.09.2022 04:08 11,3 C 10,6 C 7,2 C 93 % 1016,0 hPa 0,0 l/m 0 min 2 min 0 W/m 12,9 km/h (3 Bft) 95,74 %
18.09.2022 04:10 11,3 C 10,6 C 7,2 C 94 % 1015,9 hPa 0,0 l/m 0 min 2 min 0 W/m 6,4 km/h (2 Bft) 97,87 %
18.09.2022 04:12 11,3 C 10,6 C 7,2 C 94 % 1015,9 hPa 0,0 l/m 0 min 2 min 0 W/m 12,9 km/h (3 Bft) 95,74 %
18.09.2022 04:14 11,3 C 10,6 C 7,2 C 94 % 1015,9 hPa 0,0 l/m 0 min 2 min 0 W/m 12,9 km/h (3 Bft) 97,87 %
18.09.2022 04:16 11,3 C 10,6 C 6,7 C 94 % 1015,9 hPa 0,2 l/m 0 min 2 min 0 W/m 19,3 km/h (3 Bft) 95,65 %
18.09.2022 04:18 11,3 C 10,6 C 7,2 C 94 % 1015,9 hPa 0,0 l/m 0 min 2 min 0 W/m 9,7 km/h (2 Bft) 95,74 %
18.09.2022 04:20 11,2 C 10,6 C 7,2 C 94 % 1015,8 hPa 0,0 l/m 0 min 2 min 0 W/m 16,1 km/h (3 Bft) 97,87 %
18.09.2022 04:22 11,2 C 10,6 C 7,2 C 94 % 1015,8 hPa 0,0 l/m 0 min 0 min 0 W/m 12,9 km/h (3 Bft) 95,74 %
18.09.2022 04:24 11,2 C 10,6 C 6,7 C 94 % 1015,8 hPa 0,0 l/m 0 min 0 min 0 W/m 9,7 km/h (2 Bft) 93,62 %
18.09.2022 04:26 11,2 C 10,6 C 6,7 C 94 % 1015,8 hPa 0,0 l/m 0 min 0 min 0 W/m 19,3 km/h (3 Bft) 95,74 %
18.09.2022 04:28 11,2 C 10,6 C 7,2 C 94 % 1015,7 hPa 0,0 l/m 0 min 0 min 0 W/m 12,9 km/h (3 Bft) 95,65 %
18.09.2022 04:30 11,2 C 10,6 C 7,2 C 95 % 1015,8 hPa 0,0 l/m 0 min 0 min 0 W/m 6,4 km/h (2 Bft) 95,74 %
18.09.2022 04:32 11,2 C 10,6 C 7,2 C 95 % 1015,8 hPa 0,0 l/m 0 min 0 min 0 W/m 12,9 km/h (3 Bft) 95,74 %
18.09.2022 04:34 11,2 C 10,6 C 7,2 C 95 % 1015,7 hPa 0,0 l/m 0 min 0 min 0 W/m 9,7 km/h (2 Bft) 95,74 %
18.09.2022 04:36 11,2 C 10,6 C 7,2 C 95 % 1015,6 hPa 0,0 l/m 0 min 0 min 0 W/m 12,9 km/h (3 Bft) 97,87 %
18.09.2022 04:38 11,2 C 10,6 C 7,2 C 95 % 1015,6 hPa 0,0 l/m 0 min 0 min 0 W/m 12,9 km/h (3 Bft) 97,87 %
18.09.2022 04:40 11,2 C 10,6 C 7,2 C 95 % 1015,6 hPa 0,0 l/m 0 min 0 min 0 W/m 12,9 km/h (3 Bft) 97,83 %
18.09.2022 04:42 11,2 C 10,6 C 7,2 C 95 % 1015,6 hPa 0,0 l/m 0 min 0 min 0 W/m 6,4 km/h (2 Bft) 95,74 %
18.09.2022 04:44 11,2 C 10,6 C 7,2 C 95 % 1015,7 hPa 0,0 l/m 0 min 0 min 0 W/m 12,9 km/h (3 Bft) 97,87 %
18.09.2022 04:46 11,2 C 10,6 C 7,2 C 95 % 1015,6 hPa 0,0 l/m 0 min 0 min 0 W/m 6,4 km/h (2 Bft) 97,87 %
18.09.2022 04:48 11,2 C 10,6 C 7,2 C 95 % 1015,5 hPa 0,0 l/m 0 min 0 min 0 W/m 12,9 km/h (3 Bft) 97,87 %
18.09.2022 04:50 11,2 C 10,6 C 7,2 C 95 % 1015,6 hPa 0,0 l/m 0 min 0 min 0 W/m 12,9 km/h (3 Bft) 97,87 %
18.09.2022 04:52 11,2 C 10,6 C 7,2 C 95 % 1015,6 hPa 0,0 l/m 0 min 0 min 0 W/m 12,9 km/h (3 Bft) 93,48 %
18.09.2022 04:54 11,2 C 10,6 C 7,2 C 95 % 1015,6 hPa 0,0 l/m 0 min 0 min 0 W/m 12,9 km/h (3 Bft) 97,87 %
18.09.2022 04:56 11,2 C 10,6 C 7,2 C 95 % 1015,6 hPa 0,0 l/m 0 min 0 min 0 W/m 16,1 km/h (3 Bft) 100,00 %
18.09.2022 04:58 11,1 C 10,6 C 7,2 C 95 % 1015,6 hPa 0,0 l/m 0 min 0 min 0 W/m 6,4 km/h (2 Bft) 97,87 %
18.09.2022 05:00 11,1 C 10,6 C 7,2 C 95 % 1015,6 hPa 0,0 l/m 0 min 0 min 0 W/m 12,9 km/h (3 Bft) 100,00 %
18.09.2022 05:02 11,1 C 10,6 C 7,2 C 95 % 1015,6 hPa 0,0 l/m 0 min 0 min 0 W/m 12,9 km/h (3 Bft) 100,00 %
18.09.2022 05:04 11,1 C 10,6 C 7,2 C 95 % 1015,6 hPa 0,0 l/m 0 min 0 min 0 W/m 9,7 km/h (2 Bft) 100,00 %
18.09.2022 05:06 11,1 C 10,6 C 7,2 C 95 % 1015,6 hPa 0,0 l/m 0 min 2 min 0 W/m 12,9 km/h (3 Bft) 100,00 %
18.09.2022 05:08 11,1 C 10,6 C 7,2 C 95 % 1015,6 hPa 0,0 l/m 0 min 2 min 0 W/m 12,9 km/h (3 Bft) 100,00 %
18.09.2022 05:10 11,1 C 10,6 C 7,2 C 95 % 1015,6 hPa 0,0 l/m 0 min 2 min 0 W/m 12,9 km/h (3 Bft) 97,87 %
18.09.2022 05:12 11,1 C 10,6 C 7,2 C 95 % 1015,6 hPa 0,0 l/m 0 min 2 min 0 W/m 12,9 km/h (3 Bft) 100,00 %
18.09.2022 05:14 11,1 C 10,6 C 7,2 C 96 % 1015,7 hPa 0,0 l/m 0 min 2 min 0 W/m 9,7 km/h (2 Bft) 100,00 %
18.09.2022 05:16 11,1 C 10,6 C 7,2 C 96 % 1015,7 hPa 0,0 l/m 0 min 2 min 0 W/m 9,7 km/h (2 Bft) 100,00 %
18.09.2022 05:18 11,1 C 10,6 C 7,2 C 96 % 1015,7 hPa 0,0 l/m 0 min 2 min 0 W/m 12,9 km/h (3 Bft) 97,83 %
18.09.2022 05:20 11,1 C 10,6 C 7,2 C 96 % 1015,6 hPa 0,0 l/m 0 min 2 min 0 W/m 9,7 km/h (2 Bft) 100,00 %
18.09.2022 05:22 11,1 C 10,6 C 7,2 C 96 % 1015,6 hPa 0,0 l/m 0 min 2 min 0 W/m 12,9 km/h (3 Bft) 100,00 %
18.09.2022 05:24 11,1 C 10,6 C 7,2 C 96 % 1015,6 hPa 0,0 l/m 0 min 2 min 0 W/m 12,9 km/h (3 Bft) 100,00 %
18.09.2022 05:26 11,1 C 10,6 C 7,2 C 96 % 1015,6 hPa 0,0 l/m 0 min 2 min 0 W/m 9,7 km/h (2 Bft) 100,00 %
18.09.2022 05:28 11,1 C 10,6 C 7,2 C 96 % 1015,5 hPa 0,0 l/m 0 min 2 min 0 W/m 16,1 km/h (3 Bft) 100,00 %
18.09.2022 05:30 11,1 C 10,6 C 7,2 C 96 % 1015,6 hPa 0,0 l/m 0 min 2 min 0 W/m 12,9 km/h (3 Bft) 100,00 %
18.09.2022 05:32 11,1 C 10,6 C 7,2 C 96 % 1015,6 hPa 0,0 l/m 0 min 2 min 0 W/m 22,5 km/h (4 Bft) 100,00 %
18.09.2022 05:34 11,0 C 10,6 C 7,2 C 96 % 1015,6 hPa 0,2 l/m 0 min 2 min 0 W/m 9,7 km/h (2 Bft) 97,87 %
18.09.2022 05:36 11,1 C 10,6 C 7,2 C 96 % 1015,6 hPa 0,0 l/m 0 min 2 min 0 W/m 22,5 km/h (4 Bft) 100,00 %
18.09.2022 05:38 11,0 C 10,6 C 7,2 C 96 % 1015,6 hPa 0,0 l/m 0 min 2 min 0 W/m 16,1 km/h (3 Bft) 100,00 %
18.09.2022 05:40 11,0 C 10,0 C 6,7 C 96 % 1015,5 hPa 0,0 l/m 0 min 2 min 0 W/m 12,9 km/h (3 Bft) 97,83 %
18.09.2022 05:42 11,0 C 10,6 C 6,7 C 96 % 1015,6 hPa 0,2 l/m 0 min 2 min 0 W/m 16,1 km/h (3 Bft) 97,87 %
18.09.2022 05:44 11,0 C 10,0 C 6,7 C 96 % 1015,5 hPa 0,0 l/m 0 min 2 min 0 W/m 6,4 km/h (2 Bft) 100,00 %
18.09.2022 05:46 11,0 C 10,0 C 6,7 C 96 % 1015,5 hPa 0,0 l/m 0 min 2 min 0 W/m 12,9 km/h (3 Bft) 97,87 %
18.09.2022 05:48 11,0 C 10,0 C 6,7 C 96 % 1015,6 hPa 0,0 l/m 0 min 0 min 0 W/m 19,3 km/h (3 Bft) 97,87 %
18.09.2022 05:50 10,9 C 10,0 C 6,7 C 96 % 1015,6 hPa 0,0 l/m 0 min 0 min 0 W/m 12,9 km/h (3 Bft) 97,87 %
18.09.2022 05:52 10,9 C 10,0 C 6,7 C 96 % 1015,5 hPa 0,0 l/m 0 min 0 min 0 W/m 12,9 km/h (3 Bft) 95,65 %
18.09.2022 05:54 10,9 C 10,0 C 6,7 C 96 % 1015,5 hPa 0,0 l/m 0 min 0 min 0 W/m 12,9 km/h (3 Bft) 97,87 %
18.09.2022 05:56 10,9 C 10,0 C 6,7 C 96 % 1015,5 hPa 0,0 l/m 0 min 0 min 0 W/m 12,9 km/h (3 Bft) 95,74 %
18.09.2022 05:58 10,9 C 10,0 C 6,7 C 96 % 1015,6 hPa 0,0 l/m 0 min 0 min 0 W/m 12,9 km/h (3 Bft) 97,87 %
18.09.2022 06:00 10,9 C 10,0 C 7,2 C 96 % 1015,5 hPa 0,0 l/m 0 min 0 min 0 W/m 6,4 km/h (2 Bft) 97,87 %
18.09.2022 06:02 10,9 C 10,0 C 7,2 C 96 % 1015,6 hPa 0,0 l/m 0 min 0 min 0 W/m 6,4 km/h (2 Bft) 95,65 %
18.09.2022 06:04 11,0 C 10,0 C 7,2 C 96 % 1015,5 hPa 0,0 l/m 0 min 0 min 0 W/m 12,9 km/h (3 Bft) 95,74 %
18.09.2022 06:08 11,0 C 10,6 C 7,2 C 96 % 1015,5 hPa 0,0 l/m 0 min 0 min 0 W/m 9,7 km/h (2 Bft) 96,81 %
18.09.2022 06:10 11,0 C 10,6 C 6,7 C 96 % 1015,5 hPa 0,0 l/m 0 min 0 min 0 W/m 6,4 km/h (2 Bft) 97,87 %
18.09.2022 06:12 11,1 C 10,0 C 6,7 C 96 % 1015,5 hPa 0,0 l/m 0 min 0 min 0 W/m 6,4 km/h (2 Bft) 91,49 %
18.09.2022 06:14 11,0 C 10,6 C 7,2 C 96 % 1015,6 hPa 0,0 l/m 0 min 0 min 0 W/m 6,4 km/h (2 Bft) 93,48 %
18.09.2022 06:16 11,1 C 10,6 C 7,2 C 96 % 1015,5 hPa 0,0 l/m 0 min 0 min 0 W/m 9,7 km/h (2 Bft) 95,74 %
18.09.2022 06:18 11,1 C 10,6 C 7,2 C 96 % 1015,6 hPa 0,0 l/m 0 min 2 min 0 W/m 6,4 km/h (2 Bft) 93,62 %
18.09.2022 06:20 11,1 C 10,6 C 7,2 C 96 % 1015,6 hPa 0,0 l/m 0 min 2 min 0 W/m 6,4 km/h (2 Bft) 93,62 %
18.09.2022 06:22 11,1 C 10,6 C 7,2 C 96 % 1015,6 hPa 0,0 l/m 0 min 2 min 0 W/m 6,4 km/h (2 Bft) 95,74 %
18.09.2022 06:24 11,1 C 10,6 C 7,2 C 96 % 1015,5 hPa 0,0 l/m 0 min 0 min 0 W/m 9,7 km/h (2 Bft) 95,74 %
18.09.2022 06:26 11,1 C 10,6 C 7,2 C 96 % 1015,5 hPa 0,0 l/m 0 min 0 min 0 W/m 6,4 km/h (2 Bft) 95,65 %
18.09.2022 06:28 11,1 C 10,6 C 7,2 C 96 % 1015,5 hPa 0,0 l/m 0 min 0 min 0 W/m 9,7 km/h (2 Bft) 95,74 %
18.09.2022 06:30 11,1 C 10,6 C 7,2 C 96 % 1015,5 hPa 0,0 l/m 0 min 0 min 0 W/m 9,7 km/h (2 Bft) 97,87 %
18.09.2022 06:32 11,1 C 10,6 C 7,2 C 96 % 1015,5 hPa 0,0 l/m 0 min 0 min 0 W/m 6,4 km/h (2 Bft) 97,87 %
18.09.2022 06:34 11,1 C 10,6 C 7,2 C 96 % 1015,5 hPa 0,0 l/m 0 min 0 min 0 W/m 3,2 km/h (1 Bft) 95,74 %
18.09.2022 06:36 11,1 C 10,6 C 7,2 C 96 % 1015,5 hPa 0,0 l/m 0 min 0 min 0 W/m 6,4 km/h (2 Bft) 97,87 %
18.09.2022 06:38 11,1 C 10,6 C 7,2 C 96 % 1015,5 hPa 0,0 l/m 0 min 0 min 0 W/m 6,4 km/h (2 Bft) 97,87 %
18.09.2022 06:40 11,1 C 10,6 C 7,2 C 96 % 1015,6 hPa 0,0 l/m 0 min 0 min 0 W/m 6,4 km/h (2 Bft) 97,83 %
18.09.2022 06:42 11,1 C 10,6 C 7,2 C 97 % 1015,5 hPa 0,0 l/m 0 min 0 min 0 W/m 6,4 km/h (2 Bft) 97,87 %
18.09.2022 06:44 11,1 C 10,6 C 7,2 C 97 % 1015,5 hPa 0,0 l/m 0 min 0 min 0 W/m 12,9 km/h (3 Bft) 97,87 %
18.09.2022 06:46 11,2 C 10,6 C 7,2 C 97 % 1015,5 hPa 0,0 l/m 0 min 0 min 0 W/m 9,7 km/h (2 Bft) 78,72 %
18.09.2022 06:48 11,1 C 10,6 C 7,2 C 97 % 1015,5 hPa 0,0 l/m 0 min 0 min 0 W/m 19,3 km/h (3 Bft) 72,73 %
18.09.2022 06:50 11,1 C 10,6 C 7,2 C 97 % 1015,5 hPa 0,0 l/m 0 min 0 min 0 W/m 12,9 km/h (3 Bft) 97,83 %
18.09.2022 06:52 11,1 C 10,6 C 7,2 C 97 % 1015,5 hPa 0,0 l/m 0 min 0 min 0 W/m 6,4 km/h (2 Bft) 97,87 %
18.09.2022 06:54 11,1 C 10,6 C 7,2 C 97 % 1015,5 hPa 0,0 l/m 0 min 0 min 0 W/m 12,9 km/h (3 Bft) 97,87 %
18.09.2022 06:56 11,1 C 10,6 C 7,2 C 97 % 1015,4 hPa 0,0 l/m 0 min 0 min 0 W/m 19,3 km/h (3 Bft) 97,87 %
18.09.2022 06:58 11,1 C 10,6 C 7,2 C 97 % 1015,5 hPa 0,0 l/m 0 min 0 min 0 W/m 6,4 km/h (2 Bft) 97,87 %
18.09.2022 07:00 11,2 C 10,6 C 7,2 C 97 % 1015,4 hPa 0,0 l/m 0 min 0 min 0 W/m 6,4 km/h (2 Bft) 95,74 %
18.09.2022 07:02 11,2 C 10,6 C 7,2 C 97 % 1015,4 hPa 0,0 l/m 0 min 0 min 0 W/m 6,4 km/h (2 Bft) 97,87 %
18.09.2022 07:04 11,2 C 10,6 C 7,2 C 97 % 1015,3 hPa 0,0 l/m 0 min 0 min 0 W/m 12,9 km/h (3 Bft) 97,83 %
18.09.2022 07:06 11,2 C 10,6 C 7,2 C 97 % 1015,4 hPa 0,0 l/m 0 min 0 min 0 W/m 9,7 km/h (2 Bft) 97,87 %
18.09.2022 07:08 11,2 C 10,6 C 7,2 C 97 % 1015,3 hPa 0,0 l/m 0 min 0 min 0 W/m 6,4 km/h (2 Bft) 97,87 %
18.09.2022 07:10 11,2 C 10,6 C 7,2 C 97 % 1015,3 hPa 0,0 l/m 0 min 0 min 0 W/m 6,4 km/h (2 Bft) 97,87 %
18.09.2022 07:12 11,2 C 10,6 C 7,2 C 97 % 1015,3 hPa 0,0 l/m 0 min 0 min 0 W/m 6,4 km/h (2 Bft) 97,87 %
18.09.2022 07:14 11,2 C 10,6 C 7,2 C 97 % 1015,4 hPa 0,0 l/m 0 min 0 min 0 W/m 6,4 km/h (2 Bft) 97,83 %
18.09.2022 07:16 11,2 C 10,6 C 7,2 C 97 % 1015,4 hPa 0,0 l/m 0 min 0 min 0 W/m 19,3 km/h (3 Bft) 97,87 %
18.09.2022 07:18 11,2 C 10,6 C 7,2 C 97 % 1015,4 hPa 0,0 l/m 0 min 0 min 2 W/m 3,2 km/h (1 Bft) 95,74 %
18.09.2022 07:20 11,2 C 10,6 C 7,2 C 97 % 1015,4 hPa 0,0 l/m 0 min 0 min 5 W/m 6,4 km/h (2 Bft) 97,87 %
18.09.2022 07:22 11,1 C 10,6 C 7,2 C 97 % 1015,4 hPa 0,0 l/m 0 min 0 min 5 W/m 6,4 km/h (2 Bft) 97,87 %
18.09.2022 07:24 11,2 C 10,6 C 7,2 C 97 % 1015,4 hPa 0,0 l/m 0 min 0 min 5 W/m 6,4 km/h (2 Bft) 97,87 %
18.09.2022 07:26 11,2 C 10,6 C 7,2 C 97 % 1015,5 hPa 0,0 l/m 0 min 0 min 0 W/m 9,7 km/h (2 Bft) 95,74 %
18.09.2022 07:28 11,2 C 10,6 C 7,2 C 97 % 1015,5 hPa 0,0 l/m 0 min 0 min 0 W/m 9,7 km/h (2 Bft) 97,83 %
18.09.2022 07:30 11,2 C 10,6 C 7,2 C 97 % 1015,4 hPa 0,0 l/m 0 min 0 min 0 W/m 9,7 km/h (2 Bft) 97,87 %
18.09.2022 07:32 11,2 C 10,6 C 7,2 C 97 % 1015,4 hPa 0,0 l/m 0 min 0 min 0 W/m 12,9 km/h (3 Bft) 97,87 %
18.09.2022 07:34 11,2 C 10,6 C 7,2 C 97 % 1015,5 hPa 0,0 l/m 0 min 2 min 2 W/m 9,7 km/h (2 Bft) 97,87 %
18.09.2022 07:36 11,2 C 10,6 C 7,2 C 97 % 1015,5 hPa 0,0 l/m 0 min 2 min 5 W/m 6,4 km/h (2 Bft) 95,74 %
18.09.2022 07:38 11,2 C 10,6 C 7,2 C 97 % 1015,5 hPa 0,0 l/m 0 min 2 min 7 W/m 16,1 km/h (3 Bft) 97,87 %
18.09.2022 07:40 11,2 C 10,6 C 7,2 C 97 % 1015,5 hPa 0,0 l/m 0 min 2 min 7 W/m 6,4 km/h (2 Bft) 97,83 %
18.09.2022 07:42 11,2 C 10,6 C 7,2 C 97 % 1015,5 hPa 0,0 l/m 0 min 2 min 7 W/m 9,7 km/h (2 Bft) 95,74 %
18.09.2022 07:44 11,2 C 10,6 C 7,2 C 97 % 1015,5 hPa 0,0 l/m 0 min 2 min 7 W/m 9,7 km/h (2 Bft) 100,00 %
18.09.2022 07:46 11,2 C 10,6 C 7,2 C 97 % 1015,5 hPa 0,2 l/m 0 min 2 min 9 W/m 6,4 km/h (2 Bft) 100,00 %
18.09.2022 07:48 11,2 C 10,6 C 7,2 C 97 % 1015,6 hPa 0,0 l/m 0 min 0 min 8 W/m 6,4 km/h (2 Bft) 97,87 %
18.09.2022 07:50 11,2 C 10,6 C 7,2 C 97 % 1015,5 hPa 0,0 l/m 0 min 0 min 9 W/m 6,4 km/h (2 Bft) 100,00 %
18.09.2022 07:52 11,2 C 10,6 C 7,2 C 97 % 1015,5 hPa 0,0 l/m 0 min 0 min 11 W/m 6,4 km/h (2 Bft) 97,83 %
18.09.2022 07:54 11,2 C 10,6 C 7,2 C 97 % 1015,6 hPa 0,0 l/m 0 min 0 min 11 W/m 12,9 km/h (3 Bft) 97,87 %
18.09.2022 07:56 11,2 C 10,6 C 7,2 C 97 % 1015,5 hPa 0,0 l/m 0 min 0 min 12 W/m 6,4 km/h (2 Bft) 100,00 %
18.09.2022 07:58 11,2 C 10,6 C 7,2 C 97 % 1015,5 hPa 0,0 l/m 0 min 0 min 14 W/m 6,4 km/h (2 Bft) 100,00 %
18.09.2022 08:00 11,2 C 10,6 C 7,2 C 97 % 1015,5 hPa 0,0 l/m 0 min 2 min 16 W/m 12,9 km/h (3 Bft) 97,87 %
18.09.2022 08:02 11,2 C 10,6 C 7,2 C 97 % 1015,5 hPa 0,0 l/m 0 min 2 min 18 W/m 12,9 km/h (3 Bft) 95,65 %
18.09.2022 08:04 11,2 C 10,6 C 7,8 C 97 % 1015,5 hPa 0,0 l/m 0 min 0 min 19 W/m 3,2 km/h (1 Bft) 97,87 %
18.09.2022 08:06 11,2 C 10,6 C 7,8 C 97 % 1015,5 hPa 0,0 l/m 0 min 0 min 20 W/m 12,9 km/h (3 Bft) 95,74 %
18.09.2022 08:08 11,2 C 10,6 C 7,8 C 97 % 1015,5 hPa 0,0 l/m 0 min 0 min 24 W/m 6,4 km/h (2 Bft) 97,87 %
18.09.2022 08:10 11,2 C 10,6 C 7,8 C 97 % 1015,5 hPa 0,0 l/m 0 min 0 min 27 W/m 12,9 km/h (3 Bft) 95,74 %
18.09.2022 08:12 11,2 C 10,6 C 7,8 C 97 % 1015,5 hPa 0,0 l/m 0 min 0 min 30 W/m 9,7 km/h (2 Bft) 97,87 %
18.09.2022 08:14 11,2 C 10,6 C 7,8 C 97 % 1015,4 hPa 0,0 l/m 0 min 0 min 30 W/m 6,4 km/h (2 Bft) 97,87 %
18.09.2022 08:16 11,3 C 10,6 C 7,8 C 97 % 1015,5 hPa 0,0 l/m 0 min 0 min 33 W/m 9,7 km/h (2 Bft) 97,83 %
18.09.2022 08:18 11,3 C 10,6 C 7,8 C 97 % 1015,5 hPa 0,0 l/m 0 min 0 min 32 W/m 6,4 km/h (2 Bft) 97,87 %
18.09.2022 08:20 11,3 C 10,6 C 7,8 C 97 % 1015,5 hPa 0,0 l/m 0 min 0 min 26 W/m 6,4 km/h (2 Bft) 95,74 %
18.09.2022 08:22 11,3 C 10,6 C 7,8 C 97 % 1015,5 hPa 0,0 l/m 0 min 0 min 23 W/m 3,2 km/h (1 Bft) 97,87 %
18.09.2022 08:24 11,3 C 10,6 C 7,8 C 97 % 1015,5 hPa 0,0 l/m 0 min 0 min 23 W/m 16,1 km/h (3 Bft) 97,87 %
18.09.2022 08:26 11,3 C 10,6 C 7,8 C 97 % 1015,5 hPa 0,0 l/m 0 min 0 min 27 W/m 12,9 km/h (3 Bft) 95,65 %
18.09.2022 08:28 11,3 C 11,1 C 7,8 C 97 % 1015,5 hPa 0,0 l/m 0 min 0 min 26 W/m 16,1 km/h (3 Bft) 93,62 %
18.09.2022 08:30 11,3 C 10,6 C 7,8 C 97 % 1015,4 hPa 0,0 l/m 0 min 0 min 25 W/m 9,7 km/h (2 Bft) 95,74 %
18.09.2022 08:32 11,3 C 11,1 C 7,8 C 97 % 1015,4 hPa 0,0 l/m 0 min 0 min 25 W/m 16,1 km/h (3 Bft) 91,49 %
18.09.2022 08:34 11,3 C 11,1 C 7,8 C 97 % 1015,4 hPa 0,0 l/m 0 min 0 min 25 W/m 9,7 km/h (2 Bft) 97,87 %
18.09.2022 08:36 11,3 C 11,1 C 7,8 C 97 % 1015,5 hPa 0,0 l/m 0 min 0 min 23 W/m 9,7 km/h (2 Bft) 97,87 %
18.09.2022 08:38 11,3 C 11,1 C 7,8 C 97 % 1015,5 hPa 0,0 l/m 0 min 0 min 19 W/m 12,9 km/h (3 Bft) 95,74 %
18.09.2022 08:40 11,3 C 11,1 C 7,8 C 97 % 1015,4 hPa 0,0 l/m 0 min 0 min 16 W/m 12,9 km/h (3 Bft) 97,83 %
18.09.2022 08:42 11,3 C 11,1 C 7,8 C 97 % 1015,4 hPa 0,0 l/m 0 min 0 min 19 W/m 9,7 km/h (2 Bft) 93,62 %
18.09.2022 08:44 11,3 C 11,1 C 7,8 C 97 % 1015,5 hPa 0,0 l/m 0 min 0 min 27 W/m 12,9 km/h (3 Bft) 97,87 %
18.09.2022 08:46 11,3 C 11,1 C 7,8 C 97 % 1015,5 hPa 0,0 l/m 0 min 0 min 38 W/m 6,4 km/h (2 Bft) 97,87 %
18.09.2022 08:48 11,4 C 11,1 C 7,8 C 97 % 1015,5 hPa 0,0 l/m 0 min 0 min 53 W/m 12,9 km/h (3 Bft) 97,87 %
18.09.2022 08:50 11,4 C 11,1 C 7,8 C 97 % 1015,5 hPa 0,0 l/m 0 min 0 min 61 W/m 12,9 km/h (3 Bft) 97,83 %
18.09.2022 08:52 11,4 C 11,1 C 7,8 C 97 % 1015,4 hPa 0,0 l/m 0 min 0 min 59 W/m 16,1 km/h (3 Bft) 97,87 %
18.09.2022 08:54 11,4 C 11,1 C 7,8 C 97 % 1015,5 hPa 0,0 l/m 0 min 0 min 62 W/m 9,7 km/h (2 Bft) 97,87 %
18.09.2022 08:56 11,4 C 11,1 C 7,8 C 97 % 1015,5 hPa 0,0 l/m 0 min 0 min 58 W/m 9,7 km/h (2 Bft) 97,87 %
18.09.2022 08:58 11,4 C 11,1 C 8,3 C 97 % 1015,4 hPa 0,0 l/m 0 min 0 min 55 W/m 12,9 km/h (3 Bft) 95,74 %
18.09.2022 09:00 11,5 C 11,1 C 8,3 C 97 % 1015,4 hPa 0,0 l/m 0 min 0 min 61 W/m 12,9 km/h (3 Bft) 97,87 %
18.09.2022 09:02 11,5 C 11,1 C 8,3 C 97 % 1015,5 hPa 0,0 l/m 0 min 0 min 65 W/m 16,1 km/h (3 Bft) 97,87 %
18.09.2022 09:04 11,5 C 11,1 C 8,3 C 97 % 1015,4 hPa 0,0 l/m 0 min 0 min 71 W/m 16,1 km/h (3 Bft) 97,83 %
18.09.2022 09:06 11,6 C 11,1 C 8,3 C 97 % 1015,4 hPa 0,0 l/m 0 min 0 min 82 W/m 16,1 km/h (3 Bft) 100,00 %
18.09.2022 09:08 11,6 C 11,1 C 8,3 C 97 % 1015,4 hPa 0,0 l/m 0 min 0 min 63 W/m 12,9 km/h (3 Bft) 97,87 %
18.09.2022 09:10 11,6 C 11,1 C 8,3 C 97 % 1015,5 hPa 0,0 l/m 0 min 0 min 40 W/m 12,9 km/h (3 Bft) 100,00 %
18.09.2022 09:12 11,6 C 11,1 C 8,3 C 97 % 1015,4 hPa 0,0 l/m 0 min 0 min 30 W/m 6,4 km/h (2 Bft) 100,00 %
18.09.2022 09:14 11,6 C 11,1 C 8,3 C 97 % 1015,6 hPa 0,0 l/m 0 min 0 min 46 W/m 16,1 km/h (3 Bft) 100,00 %
18.09.2022 09:16 11,6 C 11,1 C 8,3 C 97 % 1015,5 hPa 0,0 l/m 0 min 0 min 57 W/m 6,4 km/h (2 Bft) 100,00 %
18.09.2022 09:18 11,6 C 11,7 C 8,3 C 96 % 1015,4 hPa 0,0 l/m 0 min 0 min 61 W/m 16,1 km/h (3 Bft) 100,00 %
18.09.2022 09:20 11,6 C 11,7 C 8,3 C 96 % 1015,4 hPa 0,0 l/m 0 min 0 min 74 W/m 12,9 km/h (3 Bft) 100,00 %
18.09.2022 09:22 11,6 C 11,7 C 8,3 C 96 % 1015,3 hPa 0,0 l/m 0 min 0 min 93 W/m 16,1 km/h (3 Bft) 100,00 %
18.09.2022 09:24 11,6 C 11,7 C 8,3 C 96 % 1015,3 hPa 0,0 l/m 0 min 0 min 117 W/m 16,1 km/h (3 Bft) 100,00 %
18.09.2022 09:26 11,7 C 11,7 C 8,3 C 96 % 1015,4 hPa 0,0 l/m 0 min 0 min 128 W/m 16,1 km/h (3 Bft) 100,00 %
18.09.2022 09:28 11,7 C 11,7 C 8,3 C 96 % 1015,3 hPa 0,0 l/m 0 min 0 min 127 W/m 16,1 km/h (3 Bft) 97,87 %
18.09.2022 09:30 11,7 C 11,7 C 8,9 C 96 % 1015,3 hPa 0,0 l/m 0 min 0 min 104 W/m 16,1 km/h (3 Bft) 97,87 %
18.09.2022 09:32 11,8 C 11,7 C 8,3 C 96 % 1015,3 hPa 0,0 l/m 0 min 0 min 101 W/m 16,1 km/h (3 Bft) 97,87 %
18.09.2022 09:34 11,8 C 11,7 C 8,9 C 96 % 1015,3 hPa 0,0 l/m 0 min 0 min 128 W/m 12,9 km/h (3 Bft) 100,00 %
18.09.2022 09:36 11,8 C 11,7 C 8,9 C 96 % 1015,2 hPa 0,0 l/m 0 min 0 min 150 W/m 12,9 km/h (3 Bft) 100,00 %
18.09.2022 09:38 11,8 C 12,2 C 8,9 C 96 % 1015,2 hPa 0,0 l/m 0 min 0 min 145 W/m 12,9 km/h (3 Bft) 100,00 %
18.09.2022 09:40 11,9 C 12,2 C 8,9 C 96 % 1015,2 hPa 0,0 l/m 0 min 2 min 147 W/m 9,7 km/h (2 Bft) 100,00 %
18.09.2022 09:42 11,9 C 12,2 C 8,9 C 95 % 1015,1 hPa 0,0 l/m 0 min 0 min 172 W/m 12,9 km/h (3 Bft) 100,00 %
18.09.2022 09:44 12,0 C 12,2 C 8,9 C 95 % 1015,2 hPa 0,0 l/m 0 min 0 min 174 W/m 16,1 km/h (3 Bft) 100,00 %
18.09.2022 09:46 12,1 C 12,2 C 8,9 C 95 % 1015,2 hPa 0,0 l/m 0 min 0 min 160 W/m 16,1 km/h (3 Bft) 97,87 %
18.09.2022 09:48 12,1 C 12,2 C 8,9 C 95 % 1015,2 hPa 0,0 l/m 0 min 0 min 149 W/m 12,9 km/h (3 Bft) 97,87 %
18.09.2022 09:50 12,1 C 12,2 C 8,9 C 95 % 1015,3 hPa 0,0 l/m 0 min 0 min 134 W/m 9,7 km/h (2 Bft) 100,00 %
18.09.2022 09:52 12,1 C 12,2 C 8,9 C 95 % 1015,3 hPa 0,0 l/m 0 min 0 min 128 W/m 25,7 km/h (4 Bft) 97,87 %
18.09.2022 09:54 12,1 C 12,2 C 8,9 C 95 % 1015,3 hPa 0,0 l/m 0 min 0 min 116 W/m 12,9 km/h (3 Bft) 97,87 %
18.09.2022 09:56 12,1 C 12,2 C 8,9 C 95 % 1015,3 hPa 0,0 l/m 0 min 0 min 116 W/m 9,7 km/h (2 Bft) 95,74 %
18.09.2022 09:58 12,1 C 11,7 C 8,9 C 94 % 1015,3 hPa 0,0 l/m 0 min 0 min 114 W/m 19,3 km/h (3 Bft) 95,74 %
18.09.2022 10:00 12,1 C 11,7 C 8,9 C 94 % 1015,2 hPa 0,0 l/m 0 min 0 min 114 W/m 12,9 km/h (3 Bft) 91,49 %
18.09.2022 10:02 12,2 C 12,2 C 8,9 C 94 % 1015,3 hPa 0,0 l/m 0 min 0 min 134 W/m 6,4 km/h (2 Bft) 95,65 %
18.09.2022 10:04 12,2 C 12,2 C 8,9 C 94 % 1015,3 hPa 0,0 l/m 0 min 0 min 153 W/m 12,9 km/h (3 Bft) 95,83 %
18.09.2022 10:06 12,2 C 12,2 C 8,9 C 94 % 1015,3 hPa 0,0 l/m 0 min 0 min 130 W/m 12,9 km/h (3 Bft) 95,74 %
18.09.2022 10:08 12,2 C 12,2 C 8,9 C 94 % 1015,3 hPa 0,0 l/m 0 min 0 min 113 W/m 19,3 km/h (3 Bft) 93,62 %
18.09.2022 10:10 12,2 C 12,2 C 8,9 C 94 % 1015,3 hPa 0,0 l/m 0 min 0 min 120 W/m 12,9 km/h (3 Bft) 93,62 %
18.09.2022 10:12 12,2 C 12,2 C 8,9 C 94 % 1015,4 hPa 0,0 l/m 0 min 0 min 129 W/m 9,7 km/h (2 Bft) 95,74 %
18.09.2022 10:14 12,3 C 12,2 C 8,9 C 94 % 1015,3 hPa 0,0 l/m 0 min 0 min 135 W/m 12,9 km/h (3 Bft) 95,65 %
18.09.2022 10:16 12,3 C 12,2 C 8,9 C 94 % 1015,3 hPa 0,0 l/m 0 min 0 min 122 W/m 19,3 km/h (3 Bft) 95,74 %
18.09.2022 10:18 12,3 C 12,2 C 8,9 C 94 % 1015,4 hPa 0,0 l/m 0 min 0 min 113 W/m 12,9 km/h (3 Bft) 95,74 %
18.09.2022 10:20 12,3 C 12,2 C 8,9 C 94 % 1015,4 hPa 0,0 l/m 0 min 2 min 100 W/m 16,1 km/h (3 Bft) 95,74 %
18.09.2022 10:22 12,3 C 12,2 C 8,9 C 93 % 1015,4 hPa 0,0 l/m 0 min 2 min 109 W/m 16,1 km/h (3 Bft) 97,87 %
18.09.2022 10:24 12,3 C 12,2 C 8,9 C 93 % 1015,4 hPa 0,0 l/m 0 min 2 min 111 W/m 16,1 km/h (3 Bft) 97,87 %
18.09.2022 10:26 12,3 C 12,2 C 8,9 C 93 % 1015,4 hPa 0,0 l/m 0 min 2 min 95 W/m 22,5 km/h (4 Bft) 97,83 %
18.09.2022 10:28 12,3 C 12,2 C 8,9 C 93 % 1015,4 hPa 0,0 l/m 0 min 2 min 91 W/m 12,9 km/h (3 Bft) 95,74 %
18.09.2022 10:30 12,3 C 11,7 C 8,9 C 93 % 1015,4 hPa 0,0 l/m 0 min 2 min 88 W/m 16,1 km/h (3 Bft) 97,87 %
18.09.2022 10:32 12,3 C 11,7 C 8,9 C 93 % 1015,4 hPa 0,0 l/m 0 min 2 min 90 W/m 16,1 km/h (3 Bft) 97,87 %
18.09.2022 10:34 12,3 C 11,7 C 8,9 C 93 % 1015,4 hPa 0,0 l/m 0 min 2 min 97 W/m 19,3 km/h (3 Bft) 97,87 %
18.09.2022 10:36 12,3 C 11,7 C 8,9 C 93 % 1015,4 hPa 0,0 l/m 0 min 2 min 108 W/m 16,1 km/h (3 Bft) 97,87 %
18.09.2022 10:38 12,3 C 12,2 C 8,9 C 93 % 1015,4 hPa 0,0 l/m 0 min 2 min 122 W/m 12,9 km/h (3 Bft) 97,83 %
18.09.2022 10:40 12,3 C 12,2 C 8,3 C 93 % 1015,4 hPa 0,0 l/m 0 min 2 min 128 W/m 16,1 km/h (3 Bft) 95,74 %
18.09.2022 10:42 12,3 C 12,2 C 8,3 C 94 % 1015,4 hPa 0,0 l/m 0 min 2 min 151 W/m 12,9 km/h (3 Bft) 95,74 %
18.09.2022 10:44 12,4 C 12,2 C 8,9 C 94 % 1015,4 hPa 0,0 l/m 0 min 0 min 169 W/m 12,9 km/h (3 Bft) 97,87 %
18.09.2022 10:46 12,4 C 12,2 C 8,9 C 94 % 1015,3 hPa 0,0 l/m 0 min 0 min 158 W/m 16,1 km/h (3 Bft) 97,87 %
18.09.2022 10:48 12,4 C 12,2 C 8,9 C 94 % 1015,2 hPa 0,0 l/m 0 min 2 min 154 W/m 16,1 km/h (3 Bft) 100,00 %
18.09.2022 10:50 12,5 C 12,2 C 8,3 C 94 % 1015,2 hPa 0,0 l/m 0 min 2 min 150 W/m 12,9 km/h (3 Bft) 95,65 %
18.09.2022 10:52 12,5 C 12,2 C 8,3 C 94 % 1015,2 hPa 0,0 l/m 0 min 2 min 150 W/m 12,9 km/h (3 Bft) 100,00 %
18.09.2022 10:54 12,5 C 12,2 C 8,3 C 94 % 1015,2 hPa 0,0 l/m 0 min 0 min 164 W/m 16,1 km/h (3 Bft) 100,00 %
18.09.2022 10:56 12,4 C 12,2 C 8,3 C 94 % 1015,2 hPa 0,0 l/m 0 min 0 min 154 W/m 16,1 km/h (3 Bft) 95,74 %
18.09.2022 10:58 12,4 C 12,2 C 8,3 C 94 % 1015,2 hPa 0,0 l/m 0 min 0 min 129 W/m 16,1 km/h (3 Bft) 100,00 %
18.09.2022 11:00 12,4 C 12,2 C 8,3 C 94 % 1015,3 hPa 0,0 l/m 0 min 0 min 117 W/m 9,7 km/h (2 Bft) 97,87 %
18.09.2022 11:02 12,4 C 12,2 C 8,9 C 94 % 1015,3 hPa 0,0 l/m 0 min 0 min 110 W/m 16,1 km/h (3 Bft) 100,00 %
18.09.2022 11:04 12,4 C 12,2 C 8,9 C 94 % 1015,3 hPa 0,0 l/m 0 min 0 min 98 W/m 16,1 km/h (3 Bft) 100,00 %
18.09.2022 11:06 12,4 C 12,2 C 8,9 C 94 % 1015,3 hPa 0,0 l/m 0 min 2 min 93 W/m 12,9 km/h (3 Bft) 97,87 %
18.09.2022 11:08 12,4 C 12,2 C 8,9 C 94 % 1015,4 hPa 0,0 l/m 0 min 2 min 108 W/m 6,4 km/h (2 Bft) 100,00 %
18.09.2022 11:10 12,4 C 12,2 C 8,9 C 94 % 1015,4 hPa 0,0 l/m 0 min 0 min 121 W/m 9,7 km/h (2 Bft) 97,87 %
18.09.2022 11:12 12,5 C 12,2 C 8,9 C 94 % 1015,3 hPa 0,0 l/m 0 min 2 min 143 W/m 16,1 km/h (3 Bft) 95,74 %
18.09.2022 11:14 12,4 C 12,2 C 8,3 C 94 % 1015,2 hPa 0,0 l/m 0 min 2 min 162 W/m 16,1 km/h (3 Bft) 95,65 %
18.09.2022 11:16 12,4 C 12,2 C 8,3 C 94 % 1015,3 hPa 0,0 l/m 0 min 2 min 134 W/m 16,1 km/h (3 Bft) 95,74 %
18.09.2022 11:18 12,4 C 12,2 C 8,3 C 94 % 1015,3 hPa 0,0 l/m 0 min 2 min 136 W/m 16,1 km/h (3 Bft) 97,87 %
18.09.2022 11:20 12,4 C 12,2 C 8,3 C 94 % 1015,3 hPa 0,0 l/m 0 min 2 min 118 W/m 19,3 km/h (3 Bft) 97,87 %
18.09.2022 11:22 12,4 C 12,2 C 8,3 C 94 % 1015,4 hPa 0,0 l/m 0 min 2 min 96 W/m 16,1 km/h (3 Bft) 95,74 %
18.09.2022 11:24 12,4 C 12,2 C 8,3 C 95 % 1015,3 hPa 0,0 l/m 0 min 2 min 110 W/m 12,9 km/h (3 Bft) 97,83 %
18.09.2022 11:26 12,4 C 12,2 C 8,3 C 95 % 1015,2 hPa 0,2 l/m 0 min 2 min 175 W/m 16,1 km/h (3 Bft) 97,87 %
18.09.2022 11:28 12,4 C 12,2 C 8,3 C 95 % 1015,2 hPa 0,0 l/m 0 min 2 min 212 W/m 12,9 km/h (3 Bft) 97,87 %
18.09.2022 11:30 12,5 C 12,2 C 8,3 C 95 % 1015,2 hPa 0,0 l/m 0 min 2 min 188 W/m 16,1 km/h (3 Bft) 97,87 %
18.09.2022 11:32 12,5 C 12,2 C 8,3 C 95 % 1015,2 hPa 0,0 l/m 0 min 0 min 161 W/m 16,1 km/h (3 Bft) 97,87 %
18.09.2022 11:34 12,5 C 12,2 C 8,3 C 95 % 1015,2 hPa 0,0 l/m 0 min 0 min 131 W/m 22,5 km/h (4 Bft) 97,87 %
18.09.2022 11:36 12,5 C 12,2 C 8,3 C 95 % 1015,1 hPa 0,0 l/m 0 min 2 min 135 W/m 19,3 km/h (3 Bft) 97,87 %
18.09.2022 11:38 12,4 C 12,2 C 8,3 C 95 % 1015,2 hPa 0,0 l/m 0 min 2 min 142 W/m 12,9 km/h (3 Bft) 97,83 %
18.09.2022 11:40 12,4 C 12,2 C 8,3 C 95 % 1015,1 hPa 0,0 l/m 0 min 2 min 162 W/m 19,3 km/h (3 Bft) 97,87 %
18.09.2022 11:42 12,3 C 12,2 C 8,3 C 95 % 1015,1 hPa 0,0 l/m 0 min 2 min 167 W/m 16,1 km/h (3 Bft) 97,87 %
18.09.2022 11:44 12,3 C 12,2 C 8,3 C 95 % 1015,1 hPa 0,0 l/m 0 min 2 min 193 W/m 12,9 km/h (3 Bft) 93,62 %
18.09.2022 11:46 12,4 C 12,2 C 8,3 C 95 % 1015,1 hPa 0,0 l/m 0 min 0 min 194 W/m 12,9 km/h (3 Bft) 95,74 %
18.09.2022 11:48 12,4 C 12,2 C 8,3 C 95 % 1015,0 hPa 0,0 l/m 0 min 0 min 184 W/m 16,1 km/h (3 Bft) 95,74 %
18.09.2022 11:50 12,4 C 12,2 C 8,3 C 95 % 1015,0 hPa 0,0 l/m 0 min 0 min 187 W/m 12,9 km/h (3 Bft) 95,65 %
18.09.2022 11:52 12,4 C 12,2 C 8,3 C 95 % 1015,0 hPa 0,0 l/m 0 min 0 min 169 W/m 16,1 km/h (3 Bft) 95,74 %
18.09.2022 11:54 12,5 C 12,2 C 8,9 C 95 % 1015,0 hPa 0,0 l/m 0 min 0 min 173 W/m 12,9 km/h (3 Bft) 95,74 %
18.09.2022 11:56 12,6 C 12,8 C 8,9 C 95 % 1015,0 hPa 0,0 l/m 0 min 0 min 199 W/m 16,1 km/h (3 Bft) 95,74 %
18.09.2022 11:58 12,6 C 12,8 C 8,9 C 95 % 1015,0 hPa 0,0 l/m 0 min 0 min 237 W/m 12,9 km/h (3 Bft) 95,74 %
18.09.2022 12:00 12,6 C 12,8 C 8,9 C 95 % 1014,9 hPa 0,0 l/m 2 min 0 min 301 W/m 16,1 km/h (3 Bft) 95,65 %
18.09.2022 12:02 12,7 C 12,8 C 8,9 C 95 % 1014,9 hPa 0,0 l/m 0 min 0 min 284 W/m 12,9 km/h (3 Bft) 97,87 %
18.09.2022 12:04 12,7 C 12,8 C 8,9 C 95 % 1015,0 hPa 0,0 l/m 0 min 0 min 207 W/m 9,7 km/h (2 Bft) 97,87 %
18.09.2022 12:08 12,8 C 13,3 C 8,9 C 96 % 1014,9 hPa 0,0 l/m 0 min 0 min 250 W/m 16,1 km/h (3 Bft) 97,87 %
18.09.2022 12:10 12,9 C 13,3 C 9,4 C 96 % 1015,0 hPa 0,0 l/m 2 min 0 min 347 W/m 12,9 km/h (3 Bft) 97,87 %
18.09.2022 12:12 12,9 C 13,9 C 9,4 C 96 % 1014,9 hPa 0,0 l/m 2 min 0 min 336 W/m 12,9 km/h (3 Bft) 97,83 %
18.09.2022 12:14 13,1 C 13,9 C 9,4 C 95 % 1014,9 hPa 0,0 l/m 0 min 0 min 268 W/m 16,1 km/h (3 Bft) 100,00 %
18.09.2022 12:16 13,1 C 13,3 C 9,4 C 95 % 1014,9 hPa 0,0 l/m 0 min 0 min 259 W/m 12,9 km/h (3 Bft) 97,87 %
18.09.2022 12:18 13,1 C 13,9 C 9,4 C 95 % 1014,8 hPa 0,0 l/m 2 min 0 min 312 W/m 12,9 km/h (3 Bft) 100,00 %
18.09.2022 12:20 13,2 C 13,9 C 10,0 C 96 % 1014,8 hPa 0,0 l/m 2 min 0 min 346 W/m 22,5 km/h (4 Bft) 100,00 %
18.09.2022 12:22 13,2 C 13,9 C 10,0 C 95 % 1014,8 hPa 0,0 l/m 2 min 0 min 329 W/m 25,7 km/h (4 Bft) 100,00 %
18.09.2022 12:24 13,2 C 13,9 C 10,0 C 95 % 1014,8 hPa 0,0 l/m 0 min 0 min 222 W/m 19,3 km/h (3 Bft) 100,00 %
18.09.2022 12:26 13,2 C 13,3 C 10,0 C 95 % 1014,8 hPa 0,0 l/m 0 min 0 min 176 W/m 12,9 km/h (3 Bft) 100,00 %
18.09.2022 12:28 13,3 C 13,3 C 10,0 C 94 % 1014,8 hPa 0,0 l/m 0 min 0 min 166 W/m 22,5 km/h (4 Bft) 95,74 %
18.09.2022 12:30 13,2 C 13,3 C 9,4 C 94 % 1014,8 hPa 0,0 l/m 0 min 0 min 167 W/m 19,3 km/h (3 Bft) 100,00 %
18.09.2022 12:32 13,2 C 13,3 C 9,4 C 94 % 1014,8 hPa 0,0 l/m 0 min 0 min 135 W/m 19,3 km/h (3 Bft) 100,00 %
18.09.2022 12:34 13,1 C 12,8 C 9,4 C 93 % 1014,8 hPa 0,0 l/m 0 min 0 min 114 W/m 19,3 km/h (3 Bft) 100,00 %
18.09.2022 12:36 13,1 C 12,8 C 9,4 C 93 % 1014,8 hPa 0,0 l/m 0 min 0 min 196 W/m 22,5 km/h (4 Bft) 100,00 %
18.09.2022 12:38 13,0 C 12,8 C 9,4 C 92 % 1014,8 hPa 0,0 l/m 0 min 0 min 147 W/m 22,5 km/h (4 Bft) 100,00 %
18.09.2022 12:40 13,0 C 12,8 C 9,4 C 92 % 1014,8 hPa 0,0 l/m 0 min 2 min 132 W/m 16,1 km/h (3 Bft) 100,00 %
18.09.2022 12:42 13,0 C 12,8 C 9,4 C 92 % 1014,8 hPa 0,0 l/m 0 min 0 min 194 W/m 16,1 km/h (3 Bft) 100,00 %
18.09.2022 12:44 13,0 C 12,8 C 9,4 C 92 % 1014,8 hPa 0,0 l/m 0 min 2 min 258 W/m 35,4 km/h (5 Bft) 100,00 %
18.09.2022 12:46 13,1 C 13,3 C 9,4 C 92 % 1014,7 hPa 0,0 l/m 0 min 2 min 295 W/m 16,1 km/h (3 Bft) 100,00 %
18.09.2022 12:48 13,1 C 13,3 C 9,4 C 92 % 1014,7 hPa 0,0 l/m 0 min 0 min 306 W/m 12,9 km/h (3 Bft) 95,65 %
18.09.2022 12:50 13,1 C 13,3 C 10,0 C 92 % 1014,8 hPa 0,0 l/m 0 min 0 min 298 W/m 16,1 km/h (3 Bft) 97,87 %
18.09.2022 12:52 13,1 C 13,3 C 10,0 C 92 % 1014,6 hPa 0,0 l/m 0 min 0 min 291 W/m 22,5 km/h (4 Bft) 97,87 %
18.09.2022 12:54 13,2 C 13,9 C 10,0 C 92 % 1014,6 hPa 0,0 l/m 0 min 0 min 311 W/m 12,9 km/h (3 Bft) 97,87 %
18.09.2022 12:56 13,2 C 13,9 C 10,0 C 92 % 1014,6 hPa 0,0 l/m 0 min 0 min 278 W/m 9,7 km/h (2 Bft) 97,87 %
18.09.2022 12:58 13,3 C 13,9 C 10,0 C 92 % 1014,6 hPa 0,0 l/m 0 min 0 min 280 W/m 22,5 km/h (4 Bft) 97,87 %
18.09.2022 13:00 13,4 C 13,9 C 10,6 C 92 % 1014,6 hPa 0,0 l/m 0 min 0 min 306 W/m 16,1 km/h (3 Bft) 97,83 %
18.09.2022 13:02 13,5 C 13,9 C 10,6 C 92 % 1014,6 hPa 0,0 l/m 0 min 0 min 295 W/m 16,1 km/h (3 Bft) 97,87 %
18.09.2022 13:04 13,5 C 13,9 C 10,6 C 91 % 1014,6 hPa 0,0 l/m 0 min 0 min 276 W/m 22,5 km/h (4 Bft) 95,74 %
18.09.2022 13:06 13,5 C 13,9 C 10,6 C 91 % 1014,7 hPa 0,0 l/m 0 min 0 min 296 W/m 16,1 km/h (3 Bft) 97,87 %
18.09.2022 13:08 13,5 C 13,9 C 10,6 C 91 % 1014,6 hPa 0,0 l/m 0 min 0 min 311 W/m 25,7 km/h (4 Bft) 97,87 %
18.09.2022 13:10 13,5 C 13,9 C 10,6 C 90 % 1014,6 hPa 0,0 l/m 0 min 0 min 307 W/m 16,1 km/h (3 Bft) 97,87 %
18.09.2022 13:12 13,5 C 13,9 C 10,6 C 90 % 1014,6 hPa 0,0 l/m 0 min 0 min 292 W/m 25,7 km/h (4 Bft) 93,48 %
18.09.2022 13:14 13,5 C 13,9 C 10,6 C 90 % 1014,6 hPa 0,0 l/m 0 min 0 min 266 W/m 22,5 km/h (4 Bft) 97,87 %
18.09.2022 13:16 13,6 C 13,9 C 10,6 C 90 % 1014,6 hPa 0,0 l/m 0 min 0 min 270 W/m 29,0 km/h (5 Bft) 97,87 %
18.09.2022 13:18 13,6 C 13,9 C 10,6 C 90 % 1014,7 hPa 0,0 l/m 0 min 0 min 280 W/m 22,5 km/h (4 Bft) 97,87 %
18.09.2022 13:20 13,6 C 13,9 C 10,6 C 90 % 1014,6 hPa 0,0 l/m 0 min 0 min 259 W/m 16,1 km/h (3 Bft) 97,87 %
18.09.2022 13:22 13,6 C 13,9 C 10,6 C 90 % 1014,6 hPa 0,0 l/m 0 min 0 min 268 W/m 25,7 km/h (4 Bft) 93,62 %
18.09.2022 13:24 13,6 C 13,9 C 10,6 C 90 % 1014,6 hPa 0,0 l/m 0 min 0 min 220 W/m 22,5 km/h (4 Bft) 97,83 %
18.09.2022 13:26 13,6 C 13,3 C 10,0 C 89 % 1014,6 hPa 0,0 l/m 0 min 0 min 171 W/m 12,9 km/h (3 Bft) 95,74 %
18.09.2022 13:28 13,6 C 13,3 C 10,0 C 89 % 1014,6 hPa 0,0 l/m 0 min 0 min 177 W/m 12,9 km/h (3 Bft) 95,74 %
18.09.2022 13:30 13,6 C 13,3 C 10,0 C 89 % 1014,6 hPa 0,0 l/m 0 min 0 min 166 W/m 12,9 km/h (3 Bft) 97,87 %
18.09.2022 13:32 13,6 C 13,9 C 10,0 C 89 % 1014,6 hPa 0,0 l/m 0 min 0 min 219 W/m 16,1 km/h (3 Bft) 95,74 %
18.09.2022 13:34 13,7 C 13,9 C 10,0 C 89 % 1014,6 hPa 0,0 l/m 0 min 0 min 264 W/m 22,5 km/h (4 Bft) 100,00 %
18.09.2022 13:36 13,7 C 13,9 C 10,6 C 90 % 1014,6 hPa 0,0 l/m 0 min 0 min 268 W/m 16,1 km/h (3 Bft) 97,83 %
18.09.2022 13:38 13,7 C 13,9 C 10,6 C 89 % 1014,5 hPa 0,0 l/m 0 min 0 min 244 W/m 19,3 km/h (3 Bft) 97,87 %
18.09.2022 13:40 13,7 C 13,3 C 10,0 C 89 % 1014,6 hPa 0,0 l/m 0 min 0 min 134 W/m 25,7 km/h (4 Bft) 97,87 %
18.09.2022 13:42 13,7 C 13,3 C 10,0 C 89 % 1014,6 hPa 0,0 l/m 0 min 0 min 63 W/m 16,1 km/h (3 Bft) 97,87 %
18.09.2022 13:44 13,6 C 12,8 C 10,0 C 89 % 1014,5 hPa 0,0 l/m 0 min 0 min 41 W/m 16,1 km/h (3 Bft) 95,74 %
18.09.2022 13:46 13,6 C 12,8 C 9,4 C 89 % 1014,5 hPa 0,0 l/m 0 min 2 min 27 W/m 16,1 km/h (3 Bft) 95,74 %
18.09.2022 13:48 13,5 C 12,8 C 8,9 C 90 % 1014,5 hPa 0,0 l/m 0 min 2 min 23 W/m 16,1 km/h (3 Bft) 97,83 %
18.09.2022 13:50 13,4 C 12,2 C 8,9 C 90 % 1014,7 hPa 0,2 l/m 0 min 2 min 16 W/m 22,5 km/h (4 Bft) 97,87 %
18.09.2022 13:52 13,3 C 12,2 C 8,3 C 90 % 1014,8 hPa 0,6 l/m 0 min 2 min 17 W/m 19,3 km/h (3 Bft) 97,87 %
18.09.2022 13:54 13,3 C 11,7 C 8,3 C 90 % 1015,0 hPa 0,4 l/m 0 min 2 min 20 W/m 12,9 km/h (3 Bft) 97,87 %
18.09.2022 13:56 13,2 C 11,7 C 8,3 C 91 % 1014,9 hPa 0,2 l/m 0 min 2 min 43 W/m 25,7 km/h (4 Bft) 97,87 %
18.09.2022 13:58 13,0 C 11,7 C 7,8 C 91 % 1014,8 hPa 0,2 l/m 0 min 2 min 65 W/m 22,5 km/h (4 Bft) 97,87 %
18.09.2022 14:00 12,8 C 11,1 C 7,8 C 91 % 1015,1 hPa 0,0 l/m 0 min 2 min 62 W/m 22,5 km/h (4 Bft) 95,65 %
18.09.2022 14:02 12,6 C 11,1 C 7,8 C 92 % 1015,1 hPa 0,0 l/m 0 min 2 min 51 W/m 19,3 km/h (3 Bft) 97,87 %
18.09.2022 14:04 12,4 C 10,6 C 7,2 C 91 % 1015,1 hPa 0,2 l/m 0 min 2 min 49 W/m 16,1 km/h (3 Bft) 97,87 %
18.09.2022 14:06 12,2 C 10,6 C 7,2 C 92 % 1015,1 hPa 0,0 l/m 0 min 2 min 51 W/m 16,1 km/h (3 Bft) 97,87 %
18.09.2022 14:08 12,0 C 10,6 C 7,2 C 92 % 1015,1 hPa 0,2 l/m 0 min 2 min 53 W/m 16,1 km/h (3 Bft) 97,87 %
18.09.2022 14:10 11,8 C 10,6 C 7,2 C 92 % 1015,1 hPa 0,0 l/m 0 min 2 min 54 W/m 12,9 km/h (3 Bft) 95,74 %
18.09.2022 14:12 11,7 C 10,6 C 7,2 C 92 % 1015,1 hPa 0,0 l/m 0 min 2 min 64 W/m 12,9 km/h (3 Bft) 97,83 %
18.09.2022 14:14 11,6 C 10,6 C 7,2 C 92 % 1015,0 hPa 0,0 l/m 0 min 2 min 84 W/m 22,5 km/h (4 Bft) 95,74 %
18.09.2022 14:16 11,5 C 10,6 C 7,2 C 93 % 1015,1 hPa 0,0 l/m 0 min 2 min 106 W/m 12,9 km/h (3 Bft) 97,87 %
18.09.2022 14:18 11,5 C 10,6 C 7,2 C 93 % 1015,0 hPa 0,0 l/m 0 min 2 min 119 W/m 12,9 km/h (3 Bft) 65,96 %
18.09.2022 14:20 11,4 C 10,6 C 7,2 C 93 % 1014,9 hPa 0,0 l/m 0 min 2 min 145 W/m 12,9 km/h (3 Bft) 84,44 %
18.09.2022 14:22 11,5 C 10,6 C 7,2 C 94 % 1014,9 hPa 0,0 l/m 0 min 2 min 152 W/m 6,4 km/h (2 Bft) 95,74 %
18.09.2022 14:24 11,5 C 11,1 C 7,2 C 94 % 1014,9 hPa 0,0 l/m 0 min 2 min 147 W/m 12,9 km/h (3 Bft) 97,83 %
18.09.2022 14:26 11,5 C 11,1 C 7,2 C 94 % 1014,9 hPa 0,0 l/m 0 min 2 min 144 W/m 12,9 km/h (3 Bft) 95,74 %
18.09.2022 14:28 11,6 C 11,1 C 7,2 C 94 % 1014,8 hPa 0,0 l/m 0 min 2 min 147 W/m 12,9 km/h (3 Bft) 97,87 %
18.09.2022 14:30 11,6 C 11,1 C 7,2 C 94 % 1014,8 hPa 0,0 l/m 0 min 2 min 147 W/m 12,9 km/h (3 Bft) 95,74 %
18.09.2022 14:32 11,6 C 11,1 C 7,8 C 95 % 1014,9 hPa 0,0 l/m 0 min 2 min 140 W/m 12,9 km/h (3 Bft) 97,87 %
18.09.2022 14:34 11,6 C 11,1 C 7,8 C 95 % 1014,9 hPa 0,0 l/m 0 min 2 min 150 W/m 12,9 km/h (3 Bft) 97,87 %
18.09.2022 14:36 11,7 C 11,7 C 7,8 C 95 % 1015,0 hPa 0,0 l/m 0 min 2 min 166 W/m 12,9 km/h (3 Bft) 95,65 %
18.09.2022 14:38 11,7 C 11,7 C 7,8 C 95 % 1015,0 hPa 0,0 l/m 0 min 2 min 147 W/m 19,3 km/h (3 Bft) 97,87 %
18.09.2022 14:40 11,7 C 11,7 C 7,8 C 95 % 1015,0 hPa 0,0 l/m 0 min 2 min 128 W/m 12,9 km/h (3 Bft) 97,87 %
18.09.2022 14:42 11,8 C 11,7 C 7,8 C 95 % 1015,0 hPa 0,0 l/m 0 min 2 min 120 W/m 9,7 km/h (2 Bft) 97,87 %
18.09.2022 14:44 11,8 C 11,7 C 7,8 C 95 % 1014,9 hPa 0,0 l/m 0 min 2 min 111 W/m 12,9 km/h (3 Bft) 97,87 %
18.09.2022 14:46 11,8 C 11,7 C 7,8 C 95 % 1015,0 hPa 0,2 l/m 0 min 2 min 119 W/m 12,9 km/h (3 Bft) 95,74 %
18.09.2022 14:48 11,9 C 11,7 C 7,8 C 95 % 1014,9 hPa 0,0 l/m 0 min 2 min 132 W/m 19,3 km/h (3 Bft) 97,83 %
18.09.2022 14:50 11,9 C 11,7 C 7,8 C 95 % 1014,9 hPa 0,0 l/m 0 min 2 min 121 W/m 6,4 km/h (2 Bft) 97,87 %
18.09.2022 14:52 11,9 C 11,7 C 7,8 C 95 % 1014,9 hPa 0,0 l/m 0 min 2 min 114 W/m 6,4 km/h (2 Bft) 97,87 %
18.09.2022 14:54 12,0 C 11,7 C 7,8 C 95 % 1014,9 hPa 0,0 l/m 0 min 2 min 103 W/m 19,3 km/h (3 Bft) 95,74 %
18.09.2022 14:56 12,0 C 11,7 C 7,8 C 95 % 1014,9 hPa 0,0 l/m 0 min 2 min 100 W/m 12,9 km/h (3 Bft) 95,74 %
18.09.2022 14:58 12,1 C 11,7 C 7,8 C 95 % 1014,9 hPa 0,0 l/m 0 min 2 min 96 W/m 19,3 km/h (3 Bft) 97,87 %
18.09.2022 15:00 12,1 C 11,7 C 7,8 C 96 % 1015,0 hPa 0,0 l/m 0 min 2 min 89 W/m 12,9 km/h (3 Bft) 95,65 %
18.09.2022 15:02 12,1 C 11,7 C 7,8 C 96 % 1015,0 hPa 0,2 l/m 0 min 2 min 83 W/m 12,9 km/h (3 Bft) 97,87 %
18.09.2022 15:04 12,1 C 11,7 C 7,8 C 96 % 1014,9 hPa 0,0 l/m 0 min 2 min 82 W/m 12,9 km/h (3 Bft) 97,87 %
18.09.2022 15:06 12,2 C 11,7 C 8,3 C 96 % 1014,9 hPa 0,0 l/m 0 min 2 min 83 W/m 6,4 km/h (2 Bft) 100,00 %
18.09.2022 15:08 12,2 C 11,7 C 8,3 C 96 % 1014,9 hPa 0,0 l/m 0 min 2 min 85 W/m 12,9 km/h (3 Bft) 100,00 %
18.09.2022 15:10 12,2 C 11,7 C 8,3 C 96 % 1014,9 hPa 0,0 l/m 0 min 2 min 84 W/m 6,4 km/h (2 Bft) 100,00 %
18.09.2022 15:12 12,2 C 11,7 C 8,3 C 96 % 1014,9 hPa 0,0 l/m 0 min 2 min 88 W/m 12,9 km/h (3 Bft) 100,00 %
18.09.2022 15:14 12,2 C 11,7 C 8,3 C 96 % 1014,8 hPa 0,2 l/m 0 min 2 min 92 W/m 12,9 km/h (3 Bft) 100,00 %
18.09.2022 15:16 12,3 C 11,7 C 8,3 C 96 % 1014,9 hPa 0,0 l/m 0 min 2 min 104 W/m 16,1 km/h (3 Bft) 100,00 %
18.09.2022 15:18 12,3 C 11,7 C 8,3 C 96 % 1014,9 hPa 0,0 l/m 0 min 2 min 119 W/m 9,7 km/h (2 Bft) 97,87 %
18.09.2022 15:20 12,3 C 12,2 C 8,3 C 96 % 1014,8 hPa 0,0 l/m 0 min 2 min 129 W/m 12,9 km/h (3 Bft) 100,00 %
18.09.2022 15:22 12,3 C 12,2 C 8,3 C 96 % 1014,8 hPa 0,0 l/m 0 min 2 min 130 W/m 16,1 km/h (3 Bft) 100,00 %
18.09.2022 15:24 12,3 C 12,2 C 8,3 C 96 % 1014,8 hPa 0,0 l/m 0 min 2 min 130 W/m 12,9 km/h (3 Bft) 100,00 %
18.09.2022 15:26 12,3 C 12,2 C 8,3 C 96 % 1014,8 hPa 0,0 l/m 0 min 2 min 129 W/m 12,9 km/h (3 Bft) 97,87 %
18.09.2022 15:28 12,4 C 12,2 C 8,3 C 96 % 1014,7 hPa 0,0 l/m 0 min 2 min 124 W/m 9,7 km/h (2 Bft) 100,00 %
18.09.2022 15:30 12,4 C 12,2 C 8,3 C 96 % 1014,7 hPa 0,0 l/m 0 min 2 min 116 W/m 12,9 km/h (3 Bft) 100,00 %
18.09.2022 15:32 12,3 C 12,2 C 8,3 C 96 % 1014,8 hPa 0,0 l/m 0 min 2 min 106 W/m 19,3 km/h (3 Bft) 95,74 %
18.09.2022 15:34 12,3 C 11,7 C 8,3 C 96 % 1014,7 hPa 0,2 l/m 0 min 2 min 101 W/m 12,9 km/h (3 Bft) 100,00 %
18.09.2022 15:36 12,3 C 11,7 C 8,3 C 96 % 1014,8 hPa 0,0 l/m 0 min 2 min 100 W/m 16,1 km/h (3 Bft) 93,48 %
18.09.2022 15:38 12,3 C 11,7 C 8,3 C 96 % 1014,7 hPa 0,0 l/m 0 min 2 min 96 W/m 12,9 km/h (3 Bft) 97,87 %
18.09.2022 15:40 12,3 C 11,7 C 8,3 C 96 % 1014,7 hPa 0,0 l/m 0 min 2 min 91 W/m 29,0 km/h (5 Bft) 93,62 %
18.09.2022 15:42 12,3 C 11,7 C 8,3 C 96 % 1014,8 hPa 0,0 l/m 0 min 2 min 82 W/m 9,7 km/h (2 Bft) 95,74 %
18.09.2022 15:44 12,3 C 11,7 C 8,3 C 96 % 1014,8 hPa 0,0 l/m 0 min 2 min 78 W/m 19,3 km/h (3 Bft) 95,74 %
18.09.2022 15:46 12,2 C 11,7 C 8,3 C 96 % 1014,7 hPa 0,0 l/m 0 min 2 min 78 W/m 12,9 km/h (3 Bft) 95,74 %
18.09.2022 15:48 12,2 C 11,7 C 8,3 C 96 % 1014,6 hPa 0,0 l/m 0 min 2 min 78 W/m 16,1 km/h (3 Bft) 95,65 %
18.09.2022 15:50 12,2 C 11,7 C 8,3 C 96 % 1014,7 hPa 0,0 l/m 0 min 2 min 75 W/m 12,9 km/h (3 Bft) 95,74 %
18.09.2022 15:52 12,2 C 11,7 C 8,3 C 96 % 1014,7 hPa 0,0 l/m 0 min 2 min 76 W/m 12,9 km/h (3 Bft) 95,74 %
18.09.2022 15:54 12,1 C 11,7 C 8,3 C 96 % 1014,6 hPa 0,0 l/m 0 min 2 min 79 W/m 19,3 km/h (3 Bft) 95,74 %
18.09.2022 15:56 12,1 C 11,7 C 7,8 C 96 % 1014,6 hPa 0,0 l/m 0 min 2 min 81 W/m 16,1 km/h (3 Bft) 91,49 %
18.09.2022 15:58 12,1 C 11,7 C 8,3 C 96 % 1014,6 hPa 0,0 l/m 0 min 2 min 77 W/m 12,9 km/h (3 Bft) 93,62 %
18.09.2022 16:00 12,1 C 11,7 C 8,3 C 96 % 1014,6 hPa 0,2 l/m 0 min 2 min 73 W/m 12,9 km/h (3 Bft) 95,65 %
18.09.2022 16:02 12,1 C 11,7 C 7,8 C 96 % 1014,6 hPa 0,0 l/m 0 min 2 min 69 W/m 12,9 km/h (3 Bft) 95,74 %
18.09.2022 16:04 12,1 C 11,7 C 7,8 C 96 % 1014,6 hPa 0,0 l/m 0 min 2 min 69 W/m 16,1 km/h (3 Bft) 95,74 %
18.09.2022 16:06 12,0 C 11,7 C 8,3 C 96 % 1014,6 hPa 0,0 l/m 0 min 2 min 70 W/m 12,9 km/h (3 Bft) 95,65 %
18.09.2022 16:08 12,1 C 11,7 C 7,8 C 96 % 1014,6 hPa 0,0 l/m 0 min 2 min 74 W/m 9,7 km/h (2 Bft) 95,74 %
18.09.2022 16:10 12,0 C 11,7 C 7,8 C 96 % 1014,5 hPa 0,0 l/m 0 min 2 min 78 W/m 16,1 km/h (3 Bft) 97,87 %
18.09.2022 16:12 12,1 C 11,7 C 7,8 C 96 % 1014,5 hPa 0,0 l/m 0 min 2 min 82 W/m 16,1 km/h (3 Bft) 97,87 %
18.09.2022 16:14 12,1 C 11,7 C 7,8 C 96 % 1014,5 hPa 0,2 l/m 0 min 2 min 81 W/m 16,1 km/h (3 Bft) 97,87 %
18.09.2022 16:16 12,0 C 11,7 C 8,3 C 96 % 1014,5 hPa 0,0 l/m 0 min 2 min 77 W/m 19,3 km/h (3 Bft) 93,48 %
18.09.2022 16:18 12,0 C 11,7 C 7,8 C 96 % 1014,6 hPa 0,0 l/m 0 min 2 min 77 W/m 12,9 km/h (3 Bft) 97,87 %
18.09.2022 16:20 12,0 C 11,7 C 7,8 C 96 % 1014,5 hPa 0,0 l/m 0 min 2 min 80 W/m 22,5 km/h (4 Bft) 97,87 %
18.09.2022 16:22 12,0 C 11,7 C 8,3 C 96 % 1014,5 hPa 0,0 l/m 0 min 2 min 86 W/m 12,9 km/h (3 Bft) 93,62 %
18.09.2022 16:24 12,1 C 11,7 C 8,3 C 97 % 1014,5 hPa 0,0 l/m 0 min 2 min 90 W/m 12,9 km/h (3 Bft) 97,87 %
18.09.2022 16:26 12,1 C 11,7 C 7,8 C 97 % 1014,5 hPa 0,0 l/m 0 min 2 min 84 W/m 16,1 km/h (3 Bft) 97,87 %
18.09.2022 16:28 12,1 C 11,7 C 8,3 C 97 % 1014,5 hPa 0,0 l/m 0 min 2 min 75 W/m 16,1 km/h (3 Bft) 97,87 %
18.09.2022 16:30 12,0 C 11,7 C 7,8 C 97 % 1014,5 hPa 0,0 l/m 0 min 2 min 66 W/m 12,9 km/h (3 Bft) 100,00 %
18.09.2022 16:32 12,1 C 11,7 C 8,3 C 97 % 1014,4 hPa 0,0 l/m 0 min 2 min 60 W/m 12,9 km/h (3 Bft) 97,87 %
18.09.2022 16:34 12,1 C 11,7 C 7,8 C 97 % 1014,4 hPa 0,0 l/m 0 min 2 min 56 W/m 16,1 km/h (3 Bft) 100,00 %
18.09.2022 16:36 12,1 C 11,7 C 7,8 C 97 % 1014,4 hPa 0,0 l/m 0 min 2 min 53 W/m 12,9 km/h (3 Bft) 100,00 %
18.09.2022 16:38 12,1 C 11,7 C 7,8 C 97 % 1014,5 hPa 0,0 l/m 0 min 2 min 51 W/m 12,9 km/h (3 Bft) 100,00 %
18.09.2022 16:40 12,1 C 11,7 C 7,8 C 97 % 1014,4 hPa 0,2 l/m 0 min 2 min 49 W/m 9,7 km/h (2 Bft) 97,83 %
18.09.2022 16:42 12,1 C 11,7 C 8,3 C 97 % 1014,4 hPa 0,0 l/m 0 min 2 min 53 W/m 22,5 km/h (4 Bft) 100,00 %
18.09.2022 16:44 12,1 C 11,7 C 7,8 C 97 % 1014,4 hPa 0,0 l/m 0 min 2 min 61 W/m 12,9 km/h (3 Bft) 97,87 %
18.09.2022 16:46 12,1 C 11,7 C 7,8 C 97 % 1014,4 hPa 0,0 l/m 0 min 2 min 61 W/m 19,3 km/h (3 Bft) 100,00 %
18.09.2022 16:48 12,1 C 11,7 C 8,3 C 97 % 1014,4 hPa 0,0 l/m 0 min 2 min 58 W/m 6,4 km/h (2 Bft) 100,00 %
18.09.2022 16:50 12,1 C 11,7 C 7,8 C 97 % 1014,4 hPa 0,0 l/m 0 min 2 min 59 W/m 16,1 km/h (3 Bft) 100,00 %
18.09.2022 16:52 12,1 C 11,7 C 7,8 C 97 % 1014,5 hPa 0,0 l/m 0 min 2 min 65 W/m 16,1 km/h (3 Bft) 100,00 %
18.09.2022 16:54 11,9 C 11,7 C 7,8 C 97 % 1014,4 hPa 0,0 l/m 0 min 2 min 72 W/m 16,1 km/h (3 Bft) 97,87 %
18.09.2022 16:56 11,9 C 11,7 C 7,8 C 97 % 1014,4 hPa 0,0 l/m 0 min 2 min 73 W/m 16,1 km/h (3 Bft) 97,87 %
18.09.2022 16:58 11,9 C 11,7 C 7,8 C 97 % 1014,4 hPa 0,0 l/m 0 min 2 min 75 W/m 16,1 km/h (3 Bft) 97,87 %
18.09.2022 17:00 11,9 C 11,7 C 7,8 C 97 % 1014,4 hPa 0,0 l/m 0 min 2 min 76 W/m 12,9 km/h (3 Bft) 100,00 %
18.09.2022 17:02 11,9 C 11,7 C 7,8 C 97 % 1014,4 hPa 0,0 l/m 0 min 2 min 71 W/m 12,9 km/h (3 Bft) 100,00 %
18.09.2022 17:04 11,9 C 11,7 C 7,8 C 97 % 1014,5 hPa 0,2 l/m 0 min 2 min 68 W/m 19,3 km/h (3 Bft) 97,87 %
18.09.2022 17:06 11,8 C 11,7 C 7,8 C 97 % 1014,6 hPa 0,0 l/m 0 min 2 min 70 W/m 16,1 km/h (3 Bft) 97,83 %
18.09.2022 17:08 11,8 C 11,1 C 7,8 C 96 % 1014,5 hPa 0,0 l/m 0 min 2 min 73 W/m 16,1 km/h (3 Bft) 95,74 %
18.09.2022 17:10 11,8 C 11,1 C 7,8 C 96 % 1014,5 hPa 0,0 l/m 0 min 2 min 74 W/m 12,9 km/h (3 Bft) 97,87 %
18.09.2022 17:12 11,8 C 11,1 C 7,8 C 96 % 1014,5 hPa 0,0 l/m 0 min 2 min 74 W/m 6,4 km/h (2 Bft) 97,87 %
18.09.2022 17:14 11,7 C 11,1 C 7,8 C 96 % 1014,5 hPa 0,0 l/m 0 min 2 min 69 W/m 16,1 km/h (3 Bft) 97,87 %
18.09.2022 17:16 11,7 C 11,1 C 7,8 C 96 % 1014,5 hPa 0,0 l/m 0 min 2 min 63 W/m 19,3 km/h (3 Bft) 95,65 %
18.09.2022 17:18 11,6 C 11,1 C 7,8 C 96 % 1014,5 hPa 0,0 l/m 0 min 2 min 62 W/m 16,1 km/h (3 Bft) 97,87 %
18.09.2022 17:20 11,6 C 11,1 C 7,8 C 96 % 1014,5 hPa 0,0 l/m 0 min 2 min 61 W/m 16,1 km/h (3 Bft) 95,74 %
18.09.2022 17:22 11,6 C 11,1 C 7,8 C 96 % 1014,6 hPa 0,0 l/m 0 min 2 min 60 W/m 12,9 km/h (3 Bft) 97,87 %
18.09.2022 17:24 11,5 C 11,1 C 7,8 C 96 % 1014,5 hPa 0,0 l/m 0 min 2 min 56 W/m 12,9 km/h (3 Bft) 97,87 %
18.09.2022 17:26 11,4 C 11,1 C 7,2 C 96 % 1014,5 hPa 0,2 l/m 0 min 2 min 47 W/m 12,9 km/h (3 Bft) 97,87 %
18.09.2022 17:28 11,4 C 10,6 C 7,2 C 96 % 1014,4 hPa 0,0 l/m 0 min 2 min 42 W/m 19,3 km/h (3 Bft) 95,65 %
18.09.2022 17:30 11,4 C 10,6 C 7,2 C 96 % 1014,4 hPa 0,0 l/m 0 min 2 min 42 W/m 12,9 km/h (3 Bft) 95,74 %
18.09.2022 17:32 11,3 C 10,6 C 7,2 C 96 % 1014,4 hPa 0,0 l/m 0 min 2 min 40 W/m 12,9 km/h (3 Bft) 95,74 %
18.09.2022 17:34 11,3 C 10,6 C 7,2 C 96 % 1014,5 hPa 0,0 l/m 0 min 2 min 39 W/m 12,9 km/h (3 Bft) 95,74 %
18.09.2022 17:36 11,2 C 10,6 C 7,2 C 96 % 1014,5 hPa 0,2 l/m 0 min 2 min 36 W/m 16,1 km/h (3 Bft) 93,62 %
18.09.2022 17:38 11,2 C 10,6 C 7,2 C 96 % 1014,5 hPa 0,0 l/m 0 min 2 min 35 W/m 6,4 km/h (2 Bft) 95,74 %
18.09.2022 17:40 11,2 C 10,6 C 7,2 C 96 % 1014,5 hPa 0,0 l/m 0 min 2 min 34 W/m 6,4 km/h (2 Bft) 95,65 %
18.09.2022 17:42 11,2 C 10,6 C 7,2 C 96 % 1014,5 hPa 0,0 l/m 0 min 2 min 31 W/m 6,4 km/h (2 Bft) 95,74 %
18.09.2022 17:44 11,1 C 10,6 C 7,2 C 96 % 1014,6 hPa 0,0 l/m 0 min 2 min 25 W/m 12,9 km/h (3 Bft) 95,74 %
18.09.2022 17:46 11,1 C 10,6 C 7,2 C 96 % 1014,5 hPa 0,2 l/m 0 min 2 min 21 W/m 6,4 km/h (2 Bft) 93,62 %
18.09.2022 17:48 11,1 C 10,6 C 7,2 C 96 % 1014,5 hPa 0,0 l/m 0 min 2 min 19 W/m 12,9 km/h (3 Bft) 95,74 %
18.09.2022 17:50 11,1 C 10,6 C 7,2 C 96 % 1014,5 hPa 0,2 l/m 0 min 2 min 21 W/m 6,4 km/h (2 Bft) 95,74 %
18.09.2022 17:52 11,1 C 10,6 C 7,2 C 96 % 1014,5 hPa 0,0 l/m 0 min 2 min 21 W/m 9,7 km/h (2 Bft) 95,65 %
18.09.2022 17:54 11,1 C 10,6 C 7,2 C 96 % 1014,5 hPa 0,0 l/m 0 min 2 min 22 W/m 12,9 km/h (3 Bft) 91,49 %
18.09.2022 17:56 11,1 C 10,6 C 7,2 C 96 % 1014,5 hPa 0,2 l/m 0 min 2 min 23 W/m 6,4 km/h (2 Bft) 97,87 %
18.09.2022 17:58 11,1 C 10,6 C 7,2 C 96 % 1014,5 hPa 0,0 l/m 0 min 2 min 23 W/m 6,4 km/h (2 Bft) 97,87 %
18.09.2022 18:00 11,1 C 10,6 C 7,2 C 96 % 1014,6 hPa 0,2 l/m 0 min 2 min 23 W/m 12,9 km/h (3 Bft) 97,87 %
18.09.2022 18:02 11,1 C 10,6 C 7,2 C 96 % 1014,6 hPa 0,0 l/m 0 min 2 min 23 W/m 6,4 km/h (2 Bft) 100,00 %
18.09.2022 18:04 11,1 C 10,6 C 7,2 C 96 % 1014,6 hPa 0,0 l/m 0 min 2 min 22 W/m 9,7 km/h (2 Bft) 100,00 %
18.09.2022 18:08 11,1 C 10,6 C 7,2 C 96 % 1014,6 hPa 0,2 l/m 0 min 4 min 23 W/m 16,1 km/h (3 Bft) 98,95 %
18.09.2022 18:10 11,1 C 10,6 C 7,2 C 96 % 1014,6 hPa 0,0 l/m 0 min 2 min 21 W/m 12,9 km/h (3 Bft) 100,00 %
18.09.2022 18:12 11,1 C 10,0 C 7,2 C 96 % 1014,6 hPa 0,0 l/m 0 min 2 min 22 W/m 9,7 km/h (2 Bft) 100,00 %
18.09.2022 18:14 11,1 C 10,0 C 7,2 C 96 % 1014,6 hPa 0,0 l/m 0 min 2 min 25 W/m 19,3 km/h (3 Bft) 100,00 %
18.09.2022 18:16 11,1 C 10,0 C 7,2 C 96 % 1014,6 hPa 0,0 l/m 0 min 2 min 29 W/m 6,4 km/h (2 Bft) 100,00 %
18.09.2022 18:18 11,1 C 10,0 C 7,2 C 96 % 1014,6 hPa 0,2 l/m 0 min 2 min 27 W/m 9,7 km/h (2 Bft) 100,00 %
18.09.2022 18:20 11,1 C 10,0 C 7,2 C 96 % 1014,6 hPa 0,0 l/m 0 min 2 min 24 W/m 9,7 km/h (2 Bft) 100,00 %
18.09.2022 18:22 11,1 C 10,6 C 7,2 C 96 % 1014,5 hPa 0,0 l/m 0 min 2 min 23 W/m 6,4 km/h (2 Bft) 100,00 %
18.09.2022 18:24 11,1 C 10,0 C 7,2 C 96 % 1014,5 hPa 0,0 l/m 0 min 2 min 22 W/m 9,7 km/h (2 Bft) 100,00 %
18.09.2022 18:26 11,1 C 10,0 C 7,2 C 96 % 1014,5 hPa 0,0 l/m 0 min 2 min 21 W/m 12,9 km/h (3 Bft) 97,87 %
18.09.2022 18:28 11,1 C 10,0 C 7,2 C 96 % 1014,5 hPa 0,0 l/m 0 min 2 min 21 W/m 12,9 km/h (3 Bft) 100,00 %
18.09.2022 18:30 11,1 C 10,0 C 7,2 C 96 % 1014,6 hPa 0,0 l/m 0 min 2 min 21 W/m 9,7 km/h (2 Bft) 100,00 %
18.09.2022 18:32 11,1 C 10,0 C 7,2 C 96 % 1014,6 hPa 0,0 l/m 0 min 2 min 19 W/m 6,4 km/h (2 Bft) 97,87 %
18.09.2022 18:34 11,1 C 10,0 C 7,2 C 96 % 1014,6 hPa 0,2 l/m 0 min 2 min 18 W/m 6,4 km/h (2 Bft) 100,00 %
18.09.2022 18:36 11,1 C 10,0 C 7,2 C 96 % 1014,5 hPa 0,0 l/m 0 min 2 min 18 W/m 9,7 km/h (2 Bft) 100,00 %
18.09.2022 18:38 11,1 C 10,0 C 7,2 C 96 % 1014,5 hPa 0,0 l/m 0 min 2 min 19 W/m 9,7 km/h (2 Bft) 97,87 %
18.09.2022 18:40 11,1 C 10,0 C 7,2 C 96 % 1014,5 hPa 0,0 l/m 0 min 2 min 19 W/m 16,1 km/h (3 Bft) 100,00 %
18.09.2022 18:42 11,1 C 10,0 C 7,2 C 96 % 1014,5 hPa 0,0 l/m 0 min 2 min 20 W/m 9,7 km/h (2 Bft) 95,74 %
18.09.2022 18:44 11,0 C 10,0 C 7,2 C 96 % 1014,5 hPa 0,0 l/m 0 min 2 min 19 W/m 9,7 km/h (2 Bft) 95,74 %
18.09.2022 18:46 11,0 C 10,0 C 7,2 C 96 % 1014,6 hPa 0,0 l/m 0 min 2 min 18 W/m 3,2 km/h (1 Bft) 97,83 %
18.09.2022 18:48 11,0 C 10,0 C 7,2 C 96 % 1014,6 hPa 0,2 l/m 0 min 2 min 18 W/m 6,4 km/h (2 Bft) 56,52 %
18.09.2022 18:50 11,0 C 10,0 C 7,2 C 96 % 1014,6 hPa 0,0 l/m 0 min 2 min 18 W/m 6,4 km/h (2 Bft) 97,87 %
18.09.2022 18:52 11,1 C 10,0 C 7,2 C 96 % 1014,6 hPa 0,0 l/m 0 min 2 min 18 W/m 6,4 km/h (2 Bft) 95,74 %
18.09.2022 18:54 11,0 C 10,0 C 7,2 C 96 % 1014,6 hPa 0,0 l/m 0 min 2 min 17 W/m 19,3 km/h (3 Bft) 97,87 %
18.09.2022 18:56 11,0 C 10,0 C 7,2 C 96 % 1014,7 hPa 0,0 l/m 0 min 2 min 13 W/m 9,7 km/h (2 Bft) 97,87 %
18.09.2022 18:58 10,9 C 10,0 C 7,2 C 96 % 1014,7 hPa 0,0 l/m 0 min 2 min 11 W/m 12,9 km/h (3 Bft) 97,83 %
18.09.2022 19:00 10,9 C 10,0 C 7,2 C 96 % 1014,7 hPa 0,0 l/m 0 min 2 min 9 W/m 9,7 km/h (2 Bft) 97,87 %
18.09.2022 19:02 10,9 C 10,0 C 7,2 C 97 % 1014,7 hPa 0,0 l/m 0 min 2 min 9 W/m 6,4 km/h (2 Bft) 97,87 %
18.09.2022 19:04 10,9 C 10,0 C 7,2 C 97 % 1014,7 hPa 0,0 l/m 0 min 2 min 8 W/m 6,4 km/h (2 Bft) 97,87 %
18.09.2022 19:06 10,9 C 10,0 C 7,2 C 97 % 1014,7 hPa 0,2 l/m 0 min 2 min 7 W/m 9,7 km/h (2 Bft) 97,87 %
18.09.2022 19:08 10,9 C 10,0 C 7,2 C 97 % 1014,8 hPa 0,0 l/m 0 min 2 min 6 W/m 6,4 km/h (2 Bft) 95,74 %
18.09.2022 19:10 10,9 C 10,0 C 7,2 C 97 % 1014,8 hPa 0,0 l/m 0 min 2 min 5 W/m 3,2 km/h (1 Bft) 97,83 %
18.09.2022 19:12 10,9 C 10,0 C 7,2 C 97 % 1014,8 hPa 0,2 l/m 0 min 2 min 5 W/m 16,1 km/h (3 Bft) 95,74 %
18.09.2022 19:14 10,9 C 10,0 C 7,2 C 97 % 1014,9 hPa 0,0 l/m 0 min 2 min 4 W/m 9,7 km/h (2 Bft) 97,87 %
18.09.2022 19:16 10,9 C 10,0 C 7,2 C 97 % 1014,9 hPa 0,0 l/m 0 min 2 min 0 W/m 9,7 km/h (2 Bft) 97,87 %
18.09.2022 19:18 10,9 C 10,0 C 7,2 C 97 % 1014,9 hPa 0,2 l/m 0 min 2 min 0 W/m 12,9 km/h (3 Bft) 97,87 %
18.09.2022 19:20 10,9 C 10,0 C 7,2 C 97 % 1015,1 hPa 0,2 l/m 0 min 2 min 0 W/m 12,9 km/h (3 Bft) 95,74 %
18.09.2022 19:22 10,9 C 10,0 C 7,2 C 97 % 1015,2 hPa 0,8 l/m 0 min 2 min 0 W/m 12,9 km/h (3 Bft) 95,65 %
18.09.2022 19:24 10,8 C 9,4 C 6,7 C 97 % 1015,2 hPa 0,6 l/m 0 min 2 min 0 W/m 22,5 km/h (4 Bft) 95,74 %
18.09.2022 19:26 10,5 C 9,4 C 6,1 C 97 % 1015,3 hPa 0,0 l/m 0 min 2 min 0 W/m 19,3 km/h (3 Bft) 93,62 %
18.09.2022 19:28 10,3 C 8,9 C 6,1 C 96 % 1015,4 hPa 0,2 l/m 0 min 2 min 0 W/m 19,3 km/h (3 Bft) 95,74 %
18.09.2022 19:30 10,1 C 8,9 C 6,1 C 96 % 1015,4 hPa 0,0 l/m 0 min 2 min 0 W/m 25,7 km/h (4 Bft) 95,74 %
18.09.2022 19:32 10,1 C 8,9 C 6,1 C 96 % 1015,3 hPa 0,0 l/m 0 min 2 min 0 W/m 16,1 km/h (3 Bft) 97,87 %
18.09.2022 19:34 9,9 C 8,9 C 6,1 C 96 % 1015,3 hPa 0,0 l/m 0 min 2 min 0 W/m 16,1 km/h (3 Bft) 95,65 %
18.09.2022 19:36 9,8 C 8,9 C 5,6 C 96 % 1015,3 hPa 0,2 l/m 0 min 2 min 0 W/m 12,9 km/h (3 Bft) 95,74 %
18.09.2022 19:38 9,7 C 8,3 C 5,6 C 96 % 1015,3 hPa 0,0 l/m 0 min 2 min 0 W/m 12,9 km/h (3 Bft) 95,74 %
18.09.2022 19:40 9,6 C 8,3 C 5,6 C 96 % 1015,4 hPa 0,2 l/m 0 min 2 min 0 W/m 12,9 km/h (3 Bft) 95,74 %
18.09.2022 19:42 9,6 C 8,3 C 5,6 C 96 % 1015,4 hPa 0,0 l/m 0 min 2 min 0 W/m 9,7 km/h (2 Bft) 95,74 %
18.09.2022 19:44 9,6 C 8,3 C 5,6 C 96 % 1015,4 hPa 0,0 l/m 0 min 2 min 0 W/m 16,1 km/h (3 Bft) 95,74 %
18.09.2022 19:46 9,4 C 8,3 C 5,6 C 96 % 1015,5 hPa 0,2 l/m 0 min 2 min 0 W/m 9,7 km/h (2 Bft) 97,83 %
18.09.2022 19:48 9,4 C 8,3 C 5,6 C 96 % 1015,5 hPa 0,0 l/m 0 min 2 min 0 W/m 9,7 km/h (2 Bft) 95,74 %
18.09.2022 19:50 9,4 C 8,3 C 5,6 C 96 % 1015,4 hPa 0,2 l/m 0 min 2 min 0 W/m 16,1 km/h (3 Bft) 95,74 %
18.09.2022 19:52 9,3 C 8,3 C 5,6 C 96 % 1015,4 hPa 0,0 l/m 0 min 2 min 0 W/m 9,7 km/h (2 Bft) 97,87 %
18.09.2022 19:54 9,3 C 8,3 C 5,6 C 96 % 1015,4 hPa 0,2 l/m 0 min 2 min 0 W/m 3,2 km/h (1 Bft) 97,87 %
18.09.2022 19:56 9,3 C 8,3 C 5,6 C 96 % 1015,3 hPa 0,2 l/m 0 min 2 min 0 W/m 3,2 km/h (1 Bft) 97,83 %
18.09.2022 19:58 9,3 C 8,3 C 5,6 C 96 % 1015,3 hPa 0,0 l/m 0 min 2 min 0 W/m 3,2 km/h (1 Bft) 97,87 %
18.09.2022 20:00 9,3 C 8,3 C 5,6 C 96 % 1015,2 hPa 0,0 l/m 0 min 2 min 0 W/m 6,4 km/h (2 Bft) 97,87 %
18.09.2022 20:02 9,3 C 8,3 C 5,6 C 96 % 1015,1 hPa 0,0 l/m 0 min 2 min 0 W/m 6,4 km/h (2 Bft) 93,62 %
18.09.2022 20:04 9,3 C 8,3 C 6,1 C 96 % 1015,1 hPa 0,2 l/m 0 min 2 min 0 W/m 0,0 km/h (0 Bft) 97,87 %
18.09.2022 20:06 9,4 C 8,3 C 6,1 C 96 % 1015,0 hPa 0,0 l/m 0 min 2 min 0 W/m 3,2 km/h (1 Bft) 97,87 %
18.09.2022 20:08 9,4 C 8,3 C 6,1 C 96 % 1015,0 hPa 0,0 l/m 0 min 0 min 0 W/m 6,4 km/h (2 Bft) 97,83 %
18.09.2022 20:10 9,4 C 8,3 C 6,1 C 96 % 1015,0 hPa 0,0 l/m 0 min 2 min 0 W/m 3,2 km/h (1 Bft) 95,74 %
18.09.2022 20:12 9,4 C 8,3 C 6,1 C 96 % 1014,9 hPa 0,0 l/m 0 min 2 min 0 W/m 0,0 km/h (0 Bft) 97,87 %
18.09.2022 20:14 9,4 C 8,3 C 6,1 C 96 % 1014,8 hPa 0,0 l/m 0 min 2 min 0 W/m 0,0 km/h (0 Bft) 97,87 %
18.09.2022 20:16 9,4 C 8,3 C 6,1 C 96 % 1014,9 hPa 0,0 l/m 0 min 2 min 0 W/m 6,4 km/h (2 Bft) 97,87 %
18.09.2022 20:18 9,4 C 8,3 C 5,6 C 96 % 1014,9 hPa 0,0 l/m 0 min 2 min 0 W/m 3,2 km/h (1 Bft) 97,87 %
18.09.2022 20:20 9,4 C 8,3 C 5,6 C 96 % 1014,9 hPa 0,0 l/m 0 min 0 min 0 W/m 6,4 km/h (2 Bft) 93,62 %
18.09.2022 20:22 9,4 C 8,3 C 6,1 C 96 % 1015,0 hPa 0,0 l/m 0 min 0 min 0 W/m 3,2 km/h (1 Bft) 97,83 %
18.09.2022 20:24 9,4 C 8,3 C 6,1 C 96 % 1015,0 hPa 0,0 l/m 0 min 0 min 0 W/m 6,4 km/h (2 Bft) 95,74 %
18.09.2022 20:26 9,4 C 8,3 C 6,1 C 96 % 1015,1 hPa 0,0 l/m 0 min 0 min 0 W/m 3,2 km/h (1 Bft) 97,87 %
18.09.2022 20:28 9,4 C 8,3 C 6,1 C 96 % 1015,0 hPa 0,0 l/m 0 min 0 min 0 W/m 3,2 km/h (1 Bft) 97,87 %
18.09.2022 20:30 9,5 C 8,3 C 6,1 C 97 % 1015,0 hPa 0,0 l/m 0 min 0 min 0 W/m 3,2 km/h (1 Bft) 97,87 %
18.09.2022 20:32 9,5 C 8,3 C 6,1 C 97 % 1015,0 hPa 0,0 l/m 0 min 0 min 0 W/m 6,4 km/h (2 Bft) 95,65 %
18.09.2022 20:34 9,5 C 8,3 C 6,1 C 97 % 1015,0 hPa 0,0 l/m 0 min 0 min 0 W/m 6,4 km/h (2 Bft) 55,32 %
18.09.2022 20:36 9,5 C 8,3 C 6,1 C 97 % 1015,0 hPa 0,0 l/m 0 min 0 min 0 W/m 3,2 km/h (1 Bft) 97,87 %
18.09.2022 20:38 9,5 C 8,3 C 6,1 C 97 % 1015,0 hPa 0,0 l/m 0 min 0 min 0 W/m 3,2 km/h (1 Bft) 100,00 %
18.09.2022 20:40 9,5 C 8,3 C 6,1 C 97 % 1015,0 hPa 0,0 l/m 0 min 0 min 0 W/m 3,2 km/h (1 Bft) 100,00 %
18.09.2022 20:42 9,5 C 8,3 C 6,1 C 97 % 1015,1 hPa 0,0 l/m 0 min 0 min 0 W/m 3,2 km/h (1 Bft) 100,00 %
18.09.2022 20:44 9,5 C 8,3 C 6,1 C 97 % 1015,2 hPa 0,0 l/m 0 min 0 min 0 W/m 6,4 km/h (2 Bft) 100,00 %
18.09.2022 20:46 9,5 C 8,3 C 6,1 C 97 % 1015,3 hPa 0,0 l/m 0 min 0 min 0 W/m 6,4 km/h (2 Bft) 100,00 %
18.09.2022 20:48 9,5 C 8,3 C 6,1 C 97 % 1015,3 hPa 0,0 l/m 0 min 0 min 0 W/m 3,2 km/h (1 Bft) 100,00 %
18.09.2022 20:50 9,5 C 8,3 C 6,1 C 97 % 1015,3 hPa 0,0 l/m 0 min 0 min 0 W/m 3,2 km/h (1 Bft) 100,00 %
18.09.2022 20:52 9,5 C 8,3 C 6,1 C 97 % 1015,3 hPa 0,0 l/m 0 min 0 min 0 W/m 6,4 km/h (2 Bft) 100,00 %
18.09.2022 20:54 9,5 C 8,3 C 6,1 C 97 % 1015,2 hPa 0,0 l/m 0 min 0 min 0 W/m 3,2 km/h (1 Bft) 100,00 %
18.09.2022 20:56 9,5 C 8,3 C 6,1 C 97 % 1015,3 hPa 0,0 l/m 0 min 0 min 0 W/m 3,2 km/h (1 Bft) 97,83 %
18.09.2022 20:58 9,4 C 8,3 C 6,1 C 97 % 1015,4 hPa 0,0 l/m 0 min 0 min 0 W/m 6,4 km/h (2 Bft) 100,00 %
18.09.2022 21:00 9,5 C 8,3 C 6,1 C 97 % 1015,4 hPa 0,0 l/m 0 min 0 min 0 W/m 6,4 km/h (2 Bft) 100,00 %
18.09.2022 21:02 9,4 C 8,3 C 6,1 C 97 % 1015,4 hPa 0,0 l/m 0 min 0 min 0 W/m 3,2 km/h (1 Bft) 97,87 %
18.09.2022 21:04 9,4 C 8,3 C 6,1 C 97 % 1015,4 hPa 0,0 l/m 0 min 0 min 0 W/m 6,4 km/h (2 Bft) 97,87 %
18.09.2022 21:06 9,4 C 8,3 C 6,1 C 97 % 1015,5 hPa 0,0 l/m 0 min 0 min 0 W/m 3,2 km/h (1 Bft) 97,87 %
18.09.2022 21:08 9,4 C 8,3 C 6,1 C 97 % 1015,5 hPa 0,0 l/m 0 min 0 min 0 W/m 3,2 km/h (1 Bft) 97,83 %
18.09.2022 21:10 9,4 C 8,3 C 6,1 C 97 % 1015,6 hPa 0,0 l/m 0 min 0 min 0 W/m 6,4 km/h (2 Bft) 97,87 %
18.09.2022 21:12 9,4 C 8,3 C 6,1 C 97 % 1015,7 hPa 0,0 l/m 0 min 0 min 0 W/m 6,4 km/h (2 Bft) 95,74 %
18.09.2022 21:14 9,4 C 8,3 C 5,6 C 97 % 1015,7 hPa 0,0 l/m 0 min 0 min 0 W/m 3,2 km/h (1 Bft) 95,74 %
18.09.2022 21:16 9,4 C 8,3 C 5,6 C 97 % 1015,8 hPa 0,0 l/m 0 min 0 min 0 W/m 3,2 km/h (1 Bft) 97,87 %
18.09.2022 21:18 9,4 C 8,3 C 5,6 C 97 % 1015,8 hPa 0,0 l/m 0 min 0 min 0 W/m 6,4 km/h (2 Bft) 97,87 %
18.09.2022 21:20 9,4 C 8,3 C 5,6 C 97 % 1015,8 hPa 0,0 l/m 0 min 0 min 0 W/m 6,4 km/h (2 Bft) 97,83 %
18.09.2022 21:22 9,4 C 8,3 C 5,6 C 97 % 1015,8 hPa 0,0 l/m 0 min 0 min 0 W/m 12,9 km/h (3 Bft) 97,87 %
18.09.2022 21:24 9,4 C 8,3 C 5,6 C 97 % 1015,8 hPa 0,0 l/m 0 min 0 min 0 W/m 3,2 km/h (1 Bft) 97,87 %
18.09.2022 21:26 9,4 C 8,3 C 5,6 C 97 % 1015,8 hPa 0,0 l/m 0 min 0 min 0 W/m 6,4 km/h (2 Bft) 97,87 %
18.09.2022 21:28 9,3 C 8,3 C 5,6 C 97 % 1015,8 hPa 0,0 l/m 0 min 0 min 0 W/m 6,4 km/h (2 Bft) 97,87 %
18.09.2022 21:30 9,3 C 8,3 C 5,6 C 97 % 1015,8 hPa 0,0 l/m 0 min 0 min 0 W/m 6,4 km/h (2 Bft) 97,87 %
18.09.2022 21:32 9,3 C 8,3 C 5,6 C 97 % 1015,8 hPa 0,0 l/m 0 min 0 min 0 W/m 6,4 km/h (2 Bft) 97,83 %
18.09.2022 21:34 9,3 C 8,3 C 5,6 C 97 % 1015,9 hPa 0,0 l/m 0 min 0 min 0 W/m 6,4 km/h (2 Bft) 97,87 %
18.09.2022 21:36 9,3 C 8,3 C 5,6 C 97 % 1015,9 hPa 0,0 l/m 0 min 0 min 0 W/m 9,7 km/h (2 Bft) 97,87 %
18.09.2022 21:38 9,3 C 8,3 C 5,6 C 97 % 1015,9 hPa 0,0 l/m 0 min 0 min 0 W/m 9,7 km/h (2 Bft) 100,00 %
18.09.2022 21:40 9,3 C 8,3 C 5,6 C 97 % 1016,0 hPa 0,0 l/m 0 min 0 min 0 W/m 9,7 km/h (2 Bft) 97,87 %
18.09.2022 21:42 9,3 C 8,3 C 6,1 C 97 % 1015,9 hPa 0,0 l/m 0 min 0 min 0 W/m 6,4 km/h (2 Bft) 100,00 %
18.09.2022 21:44 9,3 C 8,3 C 6,1 C 97 % 1015,9 hPa 0,0 l/m 0 min 0 min 0 W/m 9,7 km/h (2 Bft) 97,83 %
18.09.2022 21:46 9,3 C 8,3 C 5,6 C 97 % 1015,9 hPa 0,0 l/m 0 min 0 min 0 W/m 6,4 km/h (2 Bft) 100,00 %
18.09.2022 21:48 9,3 C 8,3 C 5,6 C 97 % 1016,0 hPa 0,0 l/m 0 min 0 min 0 W/m 6,4 km/h (2 Bft) 100,00 %
18.09.2022 21:50 9,3 C 8,3 C 5,6 C 97 % 1016,0 hPa 0,0 l/m 0 min 0 min 0 W/m 6,4 km/h (2 Bft) 97,87 %
18.09.2022 21:52 9,3 C 8,3 C 5,6 C 97 % 1016,0 hPa 0,0 l/m 0 min 0 min 0 W/m 6,4 km/h (2 Bft) 97,87 %
18.09.2022 21:54 9,3 C 8,3 C 6,1 C 97 % 1016,1 hPa 0,0 l/m 0 min 0 min 0 W/m 6,4 km/h (2 Bft) 97,87 %
18.09.2022 21:56 9,3 C 8,3 C 6,1 C 97 % 1016,1 hPa 0,0 l/m 0 min 0 min 0 W/m 12,9 km/h (3 Bft) 97,62 %
18.09.2022 21:58 9,4 C 8,3 C 6,1 C 97 % 1016,1 hPa 0,0 l/m 0 min 0 min 0 W/m 12,9 km/h (3 Bft) 97,87 %
18.09.2022 22:00 9,4 C 8,3 C 6,1 C 97 % 1016,1 hPa 0,0 l/m 0 min 0 min 0 W/m 9,7 km/h (2 Bft) 97,87 %
18.09.2022 22:02 9,4 C 8,3 C 6,1 C 97 % 1016,1 hPa 0,0 l/m 0 min 0 min 0 W/m 6,4 km/h (2 Bft) 91,84 %
18.09.2022 22:04 9,4 C 8,3 C 6,1 C 97 % 1016,1 hPa 0,0 l/m 0 min 0 min 0 W/m 9,7 km/h (2 Bft) 95,74 %
18.09.2022 22:06 9,4 C 8,3 C 6,1 C 97 % 1016,1 hPa 0,0 l/m 0 min 0 min 0 W/m 9,7 km/h (2 Bft) 97,87 %
18.09.2022 22:08 9,4 C 8,3 C 6,1 C 97 % 1016,1 hPa 0,0 l/m 0 min 0 min 0 W/m 6,4 km/h (2 Bft) 97,87 %
18.09.2022 22:10 9,4 C 8,3 C 6,1 C 97 % 1016,2 hPa 0,0 l/m 0 min 0 min 0 W/m 6,4 km/h (2 Bft) 97,87 %
18.09.2022 22:12 9,4 C 8,3 C 6,1 C 97 % 1016,2 hPa 0,0 l/m 0 min 0 min 0 W/m 3,2 km/h (1 Bft) 95,74 %
18.09.2022 22:14 9,4 C 8,3 C 6,1 C 97 % 1016,2 hPa 0,0 l/m 0 min 0 min 0 W/m 6,4 km/h (2 Bft) 97,83 %
18.09.2022 22:16 9,4 C 8,3 C 6,1 C 97 % 1016,2 hPa 0,0 l/m 0 min 0 min 0 W/m 12,9 km/h (3 Bft) 97,87 %
18.09.2022 22:18 9,4 C 8,3 C 6,1 C 97 % 1016,2 hPa 0,0 l/m 0 min 0 min 0 W/m 9,7 km/h (2 Bft) 95,74 %
18.09.2022 22:20 9,4 C 8,3 C 6,1 C 97 % 1016,2 hPa 0,0 l/m 0 min 0 min 0 W/m 12,9 km/h (3 Bft) 95,74 %
18.09.2022 22:22 9,4 C 8,3 C 6,1 C 97 % 1016,2 hPa 0,0 l/m 0 min 0 min 0 W/m 6,4 km/h (2 Bft) 97,87 %
18.09.2022 22:24 9,4 C 8,3 C 5,6 C 97 % 1016,2 hPa 0,0 l/m 0 min 0 min 0 W/m 6,4 km/h (2 Bft) 95,74 %
18.09.2022 22:26 9,4 C 8,3 C 6,1 C 97 % 1016,2 hPa 0,0 l/m 0 min 0 min 0 W/m 6,4 km/h (2 Bft) 97,83 %
18.09.2022 22:28 9,3 C 8,3 C 5,6 C 97 % 1016,2 hPa 0,0 l/m 0 min 0 min 0 W/m 3,2 km/h (1 Bft) 95,74 %
18.09.2022 22:30 9,3 C 8,3 C 5,6 C 97 % 1016,2 hPa 0,0 l/m 0 min 0 min 0 W/m 12,9 km/h (3 Bft) 95,74 %
18.09.2022 22:32 9,3 C 8,3 C 5,6 C 97 % 1016,2 hPa 0,0 l/m 0 min 0 min 0 W/m 6,4 km/h (2 Bft) 95,74 %
18.09.2022 22:34 9,3 C 8,3 C 5,6 C 97 % 1016,2 hPa 0,0 l/m 0 min 0 min 0 W/m 9,7 km/h (2 Bft) 95,74 %
18.09.2022 22:36 9,3 C 8,3 C 5,6 C 97 % 1016,3 hPa 0,0 l/m 0 min 0 min 0 W/m 9,7 km/h (2 Bft) 93,62 %
18.09.2022 22:38 9,3 C 8,3 C 5,6 C 97 % 1016,4 hPa 0,0 l/m 0 min 0 min 0 W/m 12,9 km/h (3 Bft) 91,30 %
18.09.2022 22:40 9,3 C 8,3 C 5,6 C 97 % 1016,4 hPa 0,0 l/m 0 min 0 min 0 W/m 12,9 km/h (3 Bft) 95,74 %
18.09.2022 22:42 9,3 C 8,3 C 5,6 C 97 % 1016,4 hPa 0,0 l/m 0 min 0 min 0 W/m 9,7 km/h (2 Bft) 95,74 %
18.09.2022 22:44 9,3 C 8,3 C 5,6 C 97 % 1016,4 hPa 0,0 l/m 0 min 0 min 0 W/m 3,2 km/h (1 Bft) 95,74 %
18.09.2022 22:46 9,3 C 8,3 C 5,6 C 97 % 1016,4 hPa 0,0 l/m 0 min 0 min 0 W/m 12,9 km/h (3 Bft) 93,62 %
18.09.2022 22:48 9,3 C 8,3 C 5,6 C 97 % 1016,5 hPa 0,0 l/m 0 min 0 min 0 W/m 9,7 km/h (2 Bft) 91,49 %
18.09.2022 22:50 9,3 C 8,3 C 5,6 C 97 % 1016,4 hPa 0,0 l/m 0 min 0 min 0 W/m 6,4 km/h (2 Bft) 97,83 %
18.09.2022 22:52 9,2 C 8,3 C 5,6 C 97 % 1016,5 hPa 0,0 l/m 0 min 0 min 0 W/m 3,2 km/h (1 Bft) 95,74 %
18.09.2022 22:54 9,2 C 8,3 C 5,6 C 97 % 1016,5 hPa 0,0 l/m 0 min 0 min 0 W/m 9,7 km/h (2 Bft) 95,74 %
18.09.2022 22:56 9,2 C 8,3 C 5,6 C 97 % 1016,5 hPa 0,0 l/m 0 min 0 min 0 W/m 9,7 km/h (2 Bft) 93,62 %
18.09.2022 22:58 9,2 C 8,3 C 5,6 C 97 % 1016,6 hPa 0,0 l/m 0 min 0 min 0 W/m 12,9 km/h (3 Bft) 95,74 %
18.09.2022 23:00 9,2 C 8,3 C 5,6 C 97 % 1016,5 hPa 0,0 l/m 0 min 0 min 0 W/m 12,9 km/h (3 Bft) 95,65 %
18.09.2022 23:02 9,2 C 8,3 C 5,6 C 97 % 1016,5 hPa 0,0 l/m 0 min 0 min 0 W/m 6,4 km/h (2 Bft) 95,74 %
18.09.2022 23:04 9,2 C 8,3 C 5,6 C 97 % 1016,6 hPa 0,0 l/m 0 min 0 min 0 W/m 6,4 km/h (2 Bft) 95,74 %
18.09.2022 23:06 9,2 C 8,3 C 5,6 C 97 % 1016,6 hPa 0,0 l/m 0 min 0 min 0 W/m 6,4 km/h (2 Bft) 93,62 %
18.09.2022 23:08 9,2 C 8,3 C 5,6 C 97 % 1016,6 hPa 0,0 l/m 0 min 0 min 0 W/m 9,7 km/h (2 Bft) 95,74 %
18.09.2022 23:10 9,2 C 8,3 C 5,6 C 97 % 1016,6 hPa 0,0 l/m 0 min 0 min 0 W/m 6,4 km/h (2 Bft) 93,62 %
18.09.2022 23:12 9,2 C 8,3 C 5,6 C 97 % 1016,6 hPa 0,0 l/m 0 min 0 min 0 W/m 6,4 km/h (2 Bft) 95,65 %
18.09.2022 23:14 9,1 C 8,3 C 5,6 C 97 % 1016,7 hPa 0,0 l/m 0 min 0 min 0 W/m 9,7 km/h (2 Bft) 95,74 %
18.09.2022 23:16 9,1 C 8,3 C 5,6 C 97 % 1016,7 hPa 0,0 l/m 0 min 0 min 0 W/m 9,7 km/h (2 Bft) 100,00 %
18.09.2022 23:18 9,1 C 8,3 C 5,6 C 97 % 1016,7 hPa 0,0 l/m 0 min 0 min 0 W/m 6,4 km/h (2 Bft) 91,49 %
18.09.2022 23:20 9,1 C 8,3 C 5,6 C 97 % 1016,7 hPa 0,0 l/m 0 min 0 min 0 W/m 12,9 km/h (3 Bft) 97,87 %
18.09.2022 23:22 9,1 C 8,3 C 5,6 C 97 % 1016,7 hPa 0,0 l/m 0 min 0 min 0 W/m 6,4 km/h (2 Bft) 100,00 %
18.09.2022 23:24 9,1 C 8,3 C 5,6 C 97 % 1016,7 hPa 0,0 l/m 0 min 0 min 0 W/m 6,4 km/h (2 Bft) 100,00 %
18.09.2022 23:26 9,1 C 8,3 C 5,6 C 97 % 1016,7 hPa 0,0 l/m 0 min 0 min 0 W/m 6,4 km/h (2 Bft) 100,00 %
18.09.2022 23:28 9,1 C 8,3 C 5,6 C 97 % 1016,7 hPa 0,2 l/m 0 min 0 min 0 W/m 9,7 km/h (2 Bft) 100,00 %
18.09.2022 23:30 9,1 C 8,3 C 5,6 C 97 % 1016,7 hPa 0,0 l/m 0 min 0 min 0 W/m 6,4 km/h (2 Bft) 100,00 %
18.09.2022 23:32 9,1 C 8,3 C 5,6 C 97 % 1016,8 hPa 0,0 l/m 0 min 0 min 0 W/m 6,4 km/h (2 Bft) 100,00 %
18.09.2022 23:34 9,1 C 8,3 C 5,6 C 97 % 1016,8 hPa 0,0 l/m 0 min 0 min 0 W/m 12,9 km/h (3 Bft) 100,00 %
18.09.2022 23:36 9,1 C 8,3 C 5,6 C 97 % 1016,7 hPa 0,0 l/m 0 min 0 min 0 W/m 6,4 km/h (2 Bft) 100,00 %
18.09.2022 23:38 9,1 C 8,3 C 5,6 C 97 % 1016,8 hPa 0,0 l/m 0 min 0 min 0 W/m 6,4 km/h (2 Bft) 100,00 %
18.09.2022 23:40 9,1 C 8,3 C 5,6 C 97 % 1016,8 hPa 0,0 l/m 0 min 0 min 0 W/m 6,4 km/h (2 Bft) 100,00 %
18.09.2022 23:42 9,1 C 8,3 C 5,6 C 97 % 1016,8 hPa 0,0 l/m 0 min 0 min 0 W/m 6,4 km/h (2 Bft) 100,00 %
18.09.2022 23:44 9,1 C 8,3 C 5,6 C 97 % 1016,8 hPa 0,0 l/m 0 min 0 min 0 W/m 3,2 km/h (1 Bft) 59,57 %
18.09.2022 23:46 9,1 C 8,3 C 5,6 C 97 % 1016,7 hPa 0,0 l/m 0 min 0 min 0 W/m 6,4 km/h (2 Bft) 97,30 %
18.09.2022 23:48 9,0 C 8,3 C 5,6 C 97 % 1016,8 hPa 0,0 l/m 0 min 0 min 0 W/m 3,2 km/h (1 Bft) 100,00 %
18.09.2022 23:50 9,0 C 8,3 C 5,6 C 97 % 1016,8 hPa 0,0 l/m 0 min 0 min 0 W/m 9,7 km/h (2 Bft) 100,00 %
18.09.2022 23:52 9,0 C 8,3 C 5,6 C 97 % 1016,7 hPa 0,0 l/m 0 min 0 min 0 W/m 6,4 km/h (2 Bft) 100,00 %
18.09.2022 23:54 9,0 C 8,3 C 5,6 C 97 % 1016,7 hPa 0,0 l/m 0 min 0 min 0 W/m 6,4 km/h (2 Bft) 100,00 %
18.09.2022 23:56 9,0 C 8,3 C 5,6 C 97 % 1016,8 hPa 0,0 l/m 0 min 0 min 0 W/m 6,4 km/h (2 Bft) 100,00 %
18.09.2022 23:58 9,0 C 8,3 C 5,6 C 97 % 1016,8 hPa 0,0 l/m 0 min 0 min 0 W/m 6,4 km/h (2 Bft) 100,00 %
_ Min-Zeit 23:48 19:38 19:36 00:00 16:32 - - - - 20:04 00:34
Minimum _ 9,0 C 8,3 C 5,6 C 88 % 1014,4 hPa - - - - 0,0 km/h (0 Bft) 54,55 %
_ Max-Zeit 13:34 12:12 13:00 06:42 23:32 19:22 12:00 18:08 12:10 12:44 00:04
Maximum _ 13,7 C 13,9 C 10,6 C 97 % 1016,8 hPa 0,8 l/m 2 min 4 min 347 W/m 35,4 km/h
SW (5 Bft)
100,00 %
Durchschnitt _ 11,3 C 10,7 C 7,4 C 95 % 1015,4 hPa #10,6 l/m #12 min. #9:42 h 101 W/m 12,0 km/h (2 Bft) 97,15 %
© 2022 W. Hausmann